Time,TemperatureF,DewpointF,PressureIn,WindDirection,WindDirectionDegrees,WindSpeedMPH,WindSpeedGustMPH,Humidity,HourlyPrecipIn,Conditions,Clouds,dailyrainin,SoftwareType,DateUTC
2013-03-19 00:00:00,51.7,49.1,29.77,SSE,158,1.6,2.5,91,0.00,,,0.00,WUHU216HW,2013-03-19 04:00:00,
2013-03-19 00:01:00,51.7,49.1,29.77,SSE,158,1.8,2.5,91,0.00,,,0.00,WUHU216HW,2013-03-19 04:01:00,
2013-03-19 00:05:00,51.7,49.1,29.77,South,180,2.7,2.7,91,0.00,,,0.00,WUHU216HW,2013-03-19 04:05:00,
2013-03-19 00:07:00,51.5,48.9,29.77,SSE,158,3.4,3.4,91,0.00,,,0.00,WUHU216HW,2013-03-19 04:07:00,
2013-03-19 00:08:00,51.7,49.1,29.77,SSE,158,3.4,3.4,91,0.00,,,0.00,WUHU216HW,2013-03-19 04:08:00,
2013-03-19 00:11:00,51.7,49.1,29.77,SSE,154,1.5,3.4,91,0.00,,,0.00,WUHU216HW,2013-03-19 04:11:00,
2013-03-19 00:12:00,51.7,49.1,29.77,SSE,158,2.5,3.4,91,0.00,,,0.00,WUHU216HW,2013-03-19 04:12:00,
2013-03-19 00:14:00,51.7,49.1,29.77,SW,219,1.5,3.4,91,0.00,,,0.00,WUHU216HW,2013-03-19 04:14:00,
2013-03-19 00:17:00,51.7,49.1,29.77,South,187,2.1,3.4,91,0.00,,,0.00,WUHU216HW,2013-03-19 04:17:00,
2013-03-19 00:18:00,51.7,49.1,29.78,South,177,2.0,2.9,91,0.00,,,0.00,WUHU216HW,2013-03-19 04:18:00,
2013-03-19 00:19:00,51.7,49.1,29.78,South,177,2.0,2.9,91,0.00,,,0.00,WUHU216HW,2013-03-19 04:19:00,
2013-03-19 00:20:00,51.7,49.1,29.78,SE,142,1.0,2.9,91,0.00,,,0.00,WUHU216HW,2013-03-19 04:20:00,
2013-03-19 00:22:00,51.7,49.1,29.78,South,180,2.9,2.9,91,0.00,,,0.00,WUHU216HW,2013-03-19 04:22:00,
2013-03-19 00:24:00,51.7,49.1,29.77,South,180,2.2,2.9,91,0.00,,,0.00,WUHU216HW,2013-03-19 04:24:00,
2013-03-19 00:25:00,51.7,49.1,29.77,SSW,208,2.5,4.3,91,0.00,,,0.00,WUHU216HW,2013-03-19 04:25:00,
2013-03-19 00:27:00,51.7,49.1,29.78,West,270,1.3,4.3,91,0.00,,,0.00,WUHU216HW,2013-03-19 04:27:00,
2013-03-19 00:29:00,51.7,49.1,29.77,South,173,1.5,4.3,91,0.00,,,0.00,WUHU216HW,2013-03-19 04:29:00,
2013-03-19 00:31:00,51.7,49.1,29.78,South,180,2.9,4.3,91,0.00,,,0.00,WUHU216HW,2013-03-19 04:31:00,
2013-03-19 00:35:00,51.7,49.1,29.77,SE,135,3.1,3.1,91,0.00,,,0.00,WUHU216HW,2013-03-19 04:35:00,
2013-03-19 00:36:00,51.5,48.9,29.77,SE,139,1.9,3.1,91,0.00,,,0.00,WUHU216HW,2013-03-19 04:36:00,
2013-03-19 00:40:00,51.5,48.9,29.77,SE,135,2.0,3.1,91,0.00,,,0.00,WUHU216HW,2013-03-19 04:40:00,
2013-03-19 00:41:00,51.5,48.9,29.77,SSW,203,2.0,3.1,91,0.00,,,0.00,WUHU216HW,2013-03-19 04:41:00,
2013-03-19 00:42:00,51.5,48.9,29.77,SSE,158,3.4,3.4,91,0.00,,,0.00,WUHU216HW,2013-03-19 04:42:00,
2013-03-19 00:45:00,51.5,48.9,29.78,South,186,4.0,4.5,91,0.00,,,0.00,WUHU216HW,2013-03-19 04:45:00,
2013-03-19 00:46:00,51.5,48.9,29.77,SSW,205,2.5,4.5,91,0.00,,,0.00,WUHU216HW,2013-03-19 04:46:00,
2013-03-19 00:49:00,51.5,48.9,29.77,SSW,203,3.0,4.5,91,0.00,,,0.00,WUHU216HW,2013-03-19 04:49:00,
2013-03-19 00:51:00,51.5,48.9,29.77,SSE,158,1.8,4.5,91,0.00,,,0.00,WUHU216HW,2013-03-19 04:51:00,
2013-03-19 00:52:00,51.5,48.9,29.77,SSE,158,1.8,4.5,91,0.00,,,0.00,WUHU216HW,2013-03-19 04:52:00,
2013-03-19 00:53:00,51.5,48.9,29.77,South,189,1.7,4.5,91,0.00,,,0.00,WUHU216HW,2013-03-19 04:53:00,
2013-03-19 00:55:00,51.5,48.9,29.77,SE,135,0.9,3.1,91,0.00,,,0.00,WUHU216HW,2013-03-19 04:55:00,
2013-03-19 00:57:00,51.5,48.9,29.77,SW,225,0.7,3.1,91,0.00,,,0.00,WUHU216HW,2013-03-19 04:57:00,
2013-03-19 00:58:00,51.5,48.9,29.77,SE,135,1.1,3.1,91,0.00,,,0.00,WUHU216HW,2013-03-19 04:58:00,
2013-03-19 01:00:00,51.5,48.9,29.77,SSE,158,1.9,2.2,91,0.00,,,0.00,WUHU216HW,2013-03-19 05:00:00,
2013-03-19 01:02:00,51.5,48.9,29.77,WSW,242,0.8,3.6,91,0.00,,,0.00,WUHU216HW,2013-03-19 05:02:00,
2013-03-19 01:03:00,51.5,48.9,29.77,WSW,242,0.8,3.6,91,0.00,,,0.00,WUHU216HW,2013-03-19 05:03:00,
2013-03-19 01:05:00,51.5,48.9,29.77,SSW,208,0.8,3.6,91,0.00,,,0.00,WUHU216HW,2013-03-19 05:05:00,
2013-03-19 01:07:00,51.3,48.7,29.77,SSW,203,2.5,3.6,91,0.00,,,0.00,WUHU216HW,2013-03-19 05:07:00,
2013-03-19 01:08:00,51.3,48.7,29.77,SSW,203,2.5,3.6,91,0.00,,,0.00,WUHU216HW,2013-03-19 05:08:00,
2013-03-19 01:10:00,51.3,48.7,29.77,South,180,1.8,3.6,91,0.00,,,0.00,WUHU216HW,2013-03-19 05:10:00,
2013-03-19 01:13:00,51.3,48.7,29.77,SSE,167,1.9,2.7,91,0.00,,,0.00,WUHU216HW,2013-03-19 05:13:00,
2013-03-19 01:15:00,51.3,48.7,29.77,SW,225,2.5,2.7,91,0.00,,,0.00,WUHU216HW,2013-03-19 05:15:00,
2013-03-19 01:18:00,51.3,48.7,29.78,SSW,208,0.8,2.7,91,0.00,,,0.00,WUHU216HW,2013-03-19 05:18:00,
2013-03-19 01:20:00,51.3,48.7,29.77,SE,135,0.9,2.7,91,0.00,,,0.00,WUHU216HW,2013-03-19 05:20:00,
2013-03-19 01:23:00,51.3,48.7,29.77,SSE,158,1.6,3.4,91,0.00,,,0.00,WUHU216HW,2013-03-19 05:23:00,
2013-03-19 01:24:00,51.3,48.7,29.77,SSE,158,0.9,3.4,91,0.00,,,0.00,WUHU216HW,2013-03-19 05:24:00,
2013-03-19 01:26:00,51.3,48.7,29.77,SSE,158,0.2,3.4,91,0.00,,,0.00,WUHU216HW,2013-03-19 05:26:00,
2013-03-19 01:27:00,51.1,48.5,29.77,North,0,0.8,3.4,91,0.00,,,0.00,WUHU216HW,2013-03-19 05:27:00,
2013-03-19 01:29:00,51.1,48.5,29.77,East,90,1.1,3.4,91,0.00,,,0.00,WUHU216HW,2013-03-19 05:29:00,
2013-03-19 01:30:00,51.1,48.5,29.77,SSE,158,1.3,3.4,91,0.00,,,0.00,WUHU216HW,2013-03-19 05:30:00,
2013-03-19 01:31:00,51.1,48.5,29.77,SSE,152,0.8,1.6,91,0.00,,,0.00,WUHU216HW,2013-03-19 05:31:00,
2013-03-19 01:32:00,51.1,48.5,29.77,South,180,1.3,1.6,91,0.00,,,0.00,WUHU216HW,2013-03-19 05:32:00,
2013-03-19 01:34:00,51.1,48.5,29.77,SSE,158,2.7,2.7,91,0.00,,,0.00,WUHU216HW,2013-03-19 05:34:00,
2013-03-19 01:35:00,51.1,48.5,29.77,SSE,158,2.7,2.7,91,0.00,,,0.00,WUHU216HW,2013-03-19 05:35:00,
2013-03-19 01:37:00,51.1,48.5,29.77,SE,135,0.9,2.7,91,0.00,,,0.00,WUHU216HW,2013-03-19 05:37:00,
2013-03-19 01:40:00,50.9,48.3,29.77,SSE,158,1.8,2.7,91,0.00,,,0.00,WUHU216HW,2013-03-19 05:40:00,
2013-03-19 01:41:00,50.9,48.3,29.77,SSE,158,1.5,2.7,91,0.00,,,0.00,WUHU216HW,2013-03-19 05:41:00,
2013-03-19 01:42:00,50.9,48.3,29.77,SSE,152,0.8,2.7,91,0.00,,,0.00,WUHU216HW,2013-03-19 05:42:00,
2013-03-19 01:45:00,50.8,48.2,29.77,SE,144,0.7,1.8,91,0.00,,,0.00,WUHU216HW,2013-03-19 05:45:00,
2013-03-19 01:46:00,50.8,48.2,29.77,SSW,203,0.2,1.8,91,0.00,,,0.00,WUHU216HW,2013-03-19 05:46:00,
2013-03-19 01:47:00,50.8,48.2,29.77,SSW,203,0.7,1.8,91,0.00,,,0.00,WUHU216HW,2013-03-19 05:47:00,
2013-03-19 01:48:00,50.8,48.2,29.77,SSW,203,0.9,1.8,91,0.00,,,0.00,WUHU216HW,2013-03-19 05:48:00,
2013-03-19 01:50:00,50.8,48.2,29.77,South,180,1.1,1.1,91,0.00,,,0.00,WUHU216HW,2013-03-19 05:50:00,
2013-03-19 01:51:00,50.8,48.2,29.77,South,180,1.3,1.3,91,0.00,,,0.00,WUHU216HW,2013-03-19 05:51:00,
2013-03-19 01:52:00,50.6,48.0,29.77,SSW,203,1.8,1.8,91,0.00,,,0.00,WUHU216HW,2013-03-19 05:52:00,
2013-03-19 01:55:00,50.6,48.0,29.77,SSE,158,1.8,1.8,91,0.00,,,0.00,WUHU216HW,2013-03-19 05:55:00,
2013-03-19 01:56:00,50.4,47.8,29.77,SSE,166,1.5,1.8,91,0.00,,,0.00,WUHU216HW,2013-03-19 05:56:00,
2013-03-19 01:57:00,50.4,47.8,29.77,SSW,203,1.3,1.8,91,0.00,,,0.00,WUHU216HW,2013-03-19 05:57:00,
2013-03-19 01:59:00,50.4,47.8,29.77,SSE,158,0.4,1.8,91,0.00,,,0.00,WUHU216HW,2013-03-19 05:59:00,
2013-03-19 02:00:00,50.4,47.8,29.77,SSE,158,0.4,1.8,91,0.00,,,0.00,WUHU216HW,2013-03-19 06:00:00,
2013-03-19 02:01:00,50.4,47.8,29.78,SSE,158,0.0,1.8,91,0.00,,,0.00,WUHU216HW,2013-03-19 06:01:00,
2013-03-19 02:03:00,50.4,47.8,29.78,SSE,158,0.0,1.8,91,0.00,,,0.00,WUHU216HW,2013-03-19 06:03:00,
2013-03-19 02:05:00,50.4,47.8,29.78,SSE,158,0.0,1.3,91,0.00,,,0.00,WUHU216HW,2013-03-19 06:05:00,
2013-03-19 02:06:00,50.4,47.8,29.78,SSE,158,0.0,1.3,91,0.00,,,0.00,WUHU216HW,2013-03-19 06:06:00,
2013-03-19 02:09:00,50.4,47.8,29.78,SSE,158,0.0,0.0,91,0.00,,,0.00,WUHU216HW,2013-03-19 06:09:00,
2013-03-19 02:10:00,50.6,48.0,29.78,SSE,158,0.0,0.0,91,0.00,,,0.00,WUHU216HW,2013-03-19 06:10:00,
2013-03-19 02:11:00,50.6,48.0,29.78,SSE,158,0.0,0.0,91,0.00,,,0.00,WUHU216HW,2013-03-19 06:11:00,
2013-03-19 02:12:00,50.6,48.0,29.78,SSE,158,0.0,0.0,91,0.00,,,0.00,WUHU216HW,2013-03-19 06:12:00,
2013-03-19 02:15:00,50.6,48.0,29.78,South,180,0.0,0.0,91,0.00,,,0.00,WUHU216HW,2013-03-19 06:15:00,
2013-03-19 02:17:00,50.6,48.0,29.79,SSE,158,0.0,0.0,91,0.00,,,0.00,WUHU216HW,2013-03-19 06:17:00,
2013-03-19 02:20:00,50.6,48.0,29.79,ENE,68,0.0,0.0,91,0.00,,,0.00,WUHU216HW,2013-03-19 06:20:00,
2013-03-19 02:22:00,50.6,48.0,29.79,ENE,68,0.0,0.0,91,0.00,,,0.00,WUHU216HW,2013-03-19 06:22:00,
2013-03-19 02:23:00,50.6,48.0,29.79,ENE,68,0.0,0.0,91,0.00,,,0.00,WUHU216HW,2013-03-19 06:23:00,
2013-03-19 02:26:00,50.8,48.2,29.79,SSW,203,0.4,1.1,91,0.00,,,0.00,WUHU216HW,2013-03-19 06:26:00,
2013-03-19 02:27:00,50.8,48.2,29.79,SSW,203,0.4,1.1,91,0.00,,,0.00,WUHU216HW,2013-03-19 06:27:00,
2013-03-19 02:28:00,50.8,48.2,29.79,East,90,0.4,1.1,91,0.00,,,0.00,WUHU216HW,2013-03-19 06:28:00,
2013-03-19 02:31:00,50.8,48.2,29.79,NE,45,0.0,1.1,91,0.00,,,0.00,WUHU216HW,2013-03-19 06:31:00,
2013-03-19 02:32:00,50.8,48.2,29.80,North,0,0.7,1.1,91,0.00,,,0.00,WUHU216HW,2013-03-19 06:32:00,
2013-03-19 02:33:00,50.8,48.2,29.80,North,0,0.9,1.1,91,0.00,,,0.00,WUHU216HW,2013-03-19 06:33:00,
2013-03-19 02:34:00,50.8,48.2,29.80,North,0,0.6,0.9,91,0.00,,,0.00,WUHU216HW,2013-03-19 06:34:00,
2013-03-19 02:37:00,50.8,48.2,29.80,WSW,248,2.0,2.0,91,0.00,,,0.00,WUHU216HW,2013-03-19 06:37:00,
2013-03-19 02:39:00,50.8,48.2,29.80,North,11,2.8,4.5,91,0.00,,,0.00,WUHU216HW,2013-03-19 06:39:00,
2013-03-19 02:42:00,50.8,48.2,29.80,WNW,293,0.7,4.5,91,0.00,,,0.00,WUHU216HW,2013-03-19 06:42:00,
2013-03-19 02:44:00,50.8,48.2,29.81,WNW,293,0.7,4.5,91,0.00,,,0.00,WUHU216HW,2013-03-19 06:44:00,
2013-03-19 02:45:00,50.8,48.2,29.80,North,352,3.6,4.5,91,0.00,,,0.00,WUHU216HW,2013-03-19 06:45:00,
2013-03-19 02:48:00,50.9,48.3,29.81,WNW,293,2.1,4.5,91,0.00,,,0.00,WUHU216HW,2013-03-19 06:48:00,
2013-03-19 02:49:00,50.9,48.3,29.81,WNW,293,2.1,4.5,91,0.00,,,0.00,WUHU216HW,2013-03-19 06:49:00,
2013-03-19 02:50:00,50.9,48.3,29.81,NNW,338,2.2,4.5,91,0.00,,,0.00,WUHU216HW,2013-03-19 06:50:00,
2013-03-19 02:51:00,50.9,48.3,29.81,NW,315,1.8,4.5,91,0.00,,,0.00,WUHU216HW,2013-03-19 06:51:00,
2013-03-19 02:54:00,51.1,48.5,29.81,North,0,1.6,4.5,91,0.00,,,0.00,WUHU216HW,2013-03-19 06:54:00,
2013-03-19 02:56:00,51.1,48.5,29.81,NW,311,2.2,3.1,91,0.00,,,0.00,WUHU216HW,2013-03-19 06:56:00,
2013-03-19 02:58:00,51.1,48.5,29.81,North,349,1.9,2.5,91,0.00,,,0.00,WUHU216HW,2013-03-19 06:58:00,
2013-03-19 02:59:00,51.1,48.5,29.81,NW,315,0.4,2.5,91,0.00,,,0.00,WUHU216HW,2013-03-19 06:59:00,
2013-03-19 03:00:00,51.1,48.5,29.81,NW,315,0.4,2.5,91,0.00,,,0.00,WUHU216HW,2013-03-19 07:00:00,
2013-03-19 03:03:00,51.1,48.5,29.81,North,0,1.8,2.5,91,0.00,,,0.00,WUHU216HW,2013-03-19 07:03:00,
2013-03-19 03:05:00,51.1,48.5,29.81,NW,315,3.4,3.4,91,0.00,,,0.00,WUHU216HW,2013-03-19 07:05:00,
2013-03-19 03:08:00,51.1,48.2,29.82,North,0,2.0,3.4,90,0.00,,,0.00,WUHU216HW,2013-03-19 07:08:00,
2013-03-19 03:09:00,51.1,48.2,29.82,North,0,2.0,3.4,90,0.00,,,0.00,WUHU216HW,2013-03-19 07:09:00,
2013-03-19 03:11:00,51.1,48.2,29.82,North,4,3.8,4.5,90,0.00,,,0.00,WUHU216HW,2013-03-19 07:11:00,
2013-03-19 03:14:00,51.1,48.0,29.82,North,0,1.8,4.5,89,0.00,,,0.00,WUHU216HW,2013-03-19 07:14:00,
2013-03-19 03:16:00,50.9,47.8,29.82,NNW,338,3.8,4.5,89,0.00,,,0.00,WUHU216HW,2013-03-19 07:16:00,
2013-03-19 03:17:00,50.9,48.1,29.82,NNW,346,3.2,4.5,90,0.00,,,0.00,WUHU216HW,2013-03-19 07:17:00,
2013-03-19 03:19:00,50.9,47.8,29.82,NNW,339,1.9,4.5,89,0.00,,,0.00,WUHU216HW,2013-03-19 07:19:00,
2013-03-19 03:21:00,50.8,47.3,29.83,NNW,338,3.6,3.8,88,0.00,,,0.00,WUHU216HW,2013-03-19 07:21:00,
2013-03-19 03:23:00,50.8,47.0,29.82,NNW,338,3.3,4.0,87,0.00,,,0.00,WUHU216HW,2013-03-19 07:23:00,
2013-03-19 03:24:00,50.8,47.0,29.82,NNE,23,2.7,4.0,87,0.00,,,0.00,WUHU216HW,2013-03-19 07:24:00,
2013-03-19 03:25:00,50.8,47.0,29.82,NNE,23,2.7,4.0,87,0.00,,,0.00,WUHU216HW,2013-03-19 07:25:00,
2013-03-19 03:27:00,50.6,46.8,29.82,NNW,338,2.9,4.0,87,0.00,,,0.00,WUHU216HW,2013-03-19 07:27:00,
2013-03-19 03:29:00,50.4,46.3,29.83,NNW,338,3.4,4.0,86,0.00,,,0.00,WUHU216HW,2013-03-19 07:29:00,
2013-03-19 03:30:00,50.4,46.3,29.83,NNW,338,3.4,4.0,86,0.00,,,0.00,WUHU216HW,2013-03-19 07:30:00,
2013-03-19 03:32:00,50.4,46.3,29.83,NNW,348,2.0,4.0,86,0.00,,,0.00,WUHU216HW,2013-03-19 07:32:00,
2013-03-19 03:35:00,50.2,46.1,29.83,NNE,23,4.9,4.9,86,0.00,,,0.00,WUHU216HW,2013-03-19 07:35:00,
2013-03-19 03:36:00,50.0,45.9,29.83,North,3,4.3,4.9,86,0.00,,,0.00,WUHU216HW,2013-03-19 07:36:00,
2013-03-19 03:37:00,50.0,45.9,29.83,NNW,327,3.7,4.9,86,0.00,,,0.00,WUHU216HW,2013-03-19 07:37:00,
2013-03-19 03:38:00,50.0,45.9,29.83,NNW,338,7.4,7.4,86,0.00,,,0.00,WUHU216HW,2013-03-19 07:38:00,
2013-03-19 03:40:00,50.0,45.6,29.83,NNW,343,3.8,7.4,85,0.00,,,0.00,WUHU216HW,2013-03-19 07:40:00,
2013-03-19 03:42:00,49.9,44.8,29.83,North,0,6.9,7.4,83,0.00,,,0.00,WUHU216HW,2013-03-19 07:42:00,
2013-03-19 03:43:00,49.9,44.8,29.84,North,353,5.0,7.4,83,0.00,,,0.00,WUHU216HW,2013-03-19 07:43:00,
2013-03-19 03:46:00,49.7,44.6,29.84,North,0,5.4,7.4,83,0.00,,,0.00,WUHU216HW,2013-03-19 07:46:00,
2013-03-19 03:47:00,49.7,44.6,29.84,North,0,3.6,7.4,83,0.00,,,0.00,WUHU216HW,2013-03-19 07:47:00,
2013-03-19 03:48:00,49.7,44.6,29.84,NW,315,2.7,6.9,83,0.00,,,0.00,WUHU216HW,2013-03-19 07:48:00,
2013-03-19 03:49:00,49.7,45.0,29.84,NW,324,2.3,6.9,84,0.00,,,0.00,WUHU216HW,2013-03-19 07:49:00,
2013-03-19 03:52:00,49.5,44.2,29.85,NNW,338,5.6,6.3,82,0.00,,,0.00,WUHU216HW,2013-03-19 07:52:00,
2013-03-19 03:53:00,49.3,44.0,29.84,NNW,347,4.2,6.3,82,0.00,,,0.00,WUHU216HW,2013-03-19 07:53:00,
2013-03-19 03:54:00,49.3,44.3,29.84,North,0,2.6,6.3,83,0.00,,,0.00,WUHU216HW,2013-03-19 07:54:00,
2013-03-19 03:57:00,49.3,44.3,29.84,NW,325,4.1,6.3,83,0.00,,,0.00,WUHU216HW,2013-03-19 07:57:00,
2013-03-19 03:58:00,49.1,43.8,29.85,NW,315,4.0,6.3,82,0.00,,,0.00,WUHU216HW,2013-03-19 07:58:00,
2013-03-19 04:01:00,49.1,43.8,29.85,NNW,338,3.0,4.9,82,0.00,,,0.00,WUHU216HW,2013-03-19 08:01:00,
2013-03-19 04:03:00,49.0,43.7,29.85,NNW,346,5.4,7.4,82,0.00,,,0.00,WUHU216HW,2013-03-19 08:03:00,
2013-03-19 04:04:00,49.0,43.7,29.85,NNW,346,5.4,7.4,82,0.00,,,0.00,WUHU216HW,2013-03-19 08:04:00,
2013-03-19 04:07:00,48.8,43.5,29.85,NNW,338,4.3,7.4,82,0.00,,,0.00,WUHU216HW,2013-03-19 08:07:00,
2013-03-19 04:08:00,48.6,42.7,29.85,North,355,3.5,7.4,80,0.00,,,0.00,WUHU216HW,2013-03-19 08:08:00,
2013-03-19 04:09:00,48.6,42.7,29.85,North,355,3.5,7.4,80,0.00,,,0.00,WUHU216HW,2013-03-19 08:09:00,
2013-03-19 04:13:00,48.4,42.9,29.86,NNW,348,2.5,6.3,81,0.00,,,0.00,WUHU216HW,2013-03-19 08:13:00,
2013-03-19 04:14:00,48.4,42.9,29.86,NNW,348,2.5,4.5,81,0.00,,,0.00,WUHU216HW,2013-03-19 08:14:00,
2013-03-19 04:15:00,48.4,42.9,29.86,North,0,2.9,4.5,81,0.00,,,0.00,WUHU216HW,2013-03-19 08:15:00,
2013-03-19 04:19:00,48.1,42.1,29.86,WNW,303,2.8,4.0,80,0.00,,,0.00,WUHU216HW,2013-03-19 08:19:00,
2013-03-19 04:20:00,47.9,41.9,29.86,WNW,293,2.2,4.0,80,0.00,,,0.00,WUHU216HW,2013-03-19 08:20:00,
2013-03-19 04:24:00,47.5,41.7,29.86,NW,315,2.8,4.5,80,0.00,,,0.00,WUHU216HW,2013-03-19 08:24:00,
2013-03-19 04:25:00,47.5,41.3,29.85,NNW,338,5.1,5.1,79,0.00,,,0.00,WUHU216HW,2013-03-19 08:25:00,
2013-03-19 04:29:00,47.2,41.3,29.86,NNW,338,2.2,5.1,80,0.00,,,0.00,WUHU216HW,2013-03-19 08:29:00,
2013-03-19 04:30:00,47.2,41.3,29.86,WNW,293,1.8,5.1,80,0.00,,,0.00,WUHU216HW,2013-03-19 08:30:00,
2013-03-19 04:31:00,47.2,41.3,29.86,North,0,2.2,5.1,80,0.00,,,0.00,WUHU216HW,2013-03-19 08:31:00,
2013-03-19 04:32:00,47.0,41.1,29.86,North,0,4.3,5.1,80,0.00,,,0.00,WUHU216HW,2013-03-19 08:32:00,
2013-03-19 04:34:00,46.8,40.7,29.87,NNW,338,4.0,5.1,79,0.00,,,0.00,WUHU216HW,2013-03-19 08:34:00,
2013-03-19 04:35:00,46.6,40.5,29.87,NW,315,2.5,4.3,79,0.00,,,0.00,WUHU216HW,2013-03-19 08:35:00,
2013-03-19 04:37:00,46.4,40.7,29.87,NW,317,3.2,4.3,80,0.00,,,0.00,WUHU216HW,2013-03-19 08:37:00,
2013-03-19 04:38:00,46.4,40.7,29.87,WNW,293,2.6,4.3,80,0.00,,,0.00,WUHU216HW,2013-03-19 08:38:00,
2013-03-19 04:40:00,46.4,40.7,29.87,NNW,338,1.8,4.3,80,0.00,,,0.00,WUHU216HW,2013-03-19 08:40:00,
2013-03-19 04:41:00,46.4,40.7,29.87,WNW,293,3.6,4.3,80,0.00,,,0.00,WUHU216HW,2013-03-19 08:41:00,
2013-03-19 04:42:00,46.3,40.5,29.87,NW,313,3.3,4.0,80,0.00,,,0.00,WUHU216HW,2013-03-19 08:42:00,
2013-03-19 04:44:00,46.3,40.5,29.87,North,0,1.8,3.6,80,0.00,,,0.00,WUHU216HW,2013-03-19 08:44:00,
2013-03-19 04:46:00,46.1,40.3,29.87,NNW,330,3.0,4.0,80,0.00,,,0.00,WUHU216HW,2013-03-19 08:46:00,
2013-03-19 04:47:00,46.1,40.6,29.88,NNW,347,1.9,4.0,81,0.00,,,0.00,WUHU216HW,2013-03-19 08:47:00,
2013-03-19 04:48:00,46.1,40.6,29.88,NNW,347,1.9,4.0,81,0.00,,,0.00,WUHU216HW,2013-03-19 08:48:00,
2013-03-19 04:49:00,46.1,40.6,29.87,NW,315,4.5,4.5,81,0.00,,,0.00,WUHU216HW,2013-03-19 08:49:00,
2013-03-19 04:52:00,45.9,40.1,29.87,NW,322,2.5,4.5,80,0.00,,,0.00,WUHU216HW,2013-03-19 08:52:00,
2013-03-19 04:53:00,45.9,40.1,29.87,NW,322,2.5,4.5,80,0.00,,,0.00,WUHU216HW,2013-03-19 08:53:00,
2013-03-19 04:57:00,45.7,40.0,29.88,North,0,2.7,4.5,80,0.00,,,0.00,WUHU216HW,2013-03-19 08:57:00,
2013-03-19 04:58:00,45.7,40.0,29.88,North,0,2.7,4.5,80,0.00,,,0.00,WUHU216HW,2013-03-19 08:58:00,
2013-03-19 04:59:00,45.7,40.0,29.88,NNW,338,2.5,4.5,80,0.00,,,0.00,WUHU216HW,2013-03-19 08:59:00,
2013-03-19 05:03:00,45.5,40.1,29.88,NW,314,1.9,4.5,81,0.00,,,0.00,WUHU216HW,2013-03-19 09:03:00,
2013-03-19 05:04:00,45.4,39.6,29.88,North,0,2.5,2.7,80,0.00,,,0.00,WUHU216HW,2013-03-19 09:04:00,
2013-03-19 05:08:00,45.2,39.7,29.88,NNW,330,1.7,3.4,81,0.00,,,0.00,WUHU216HW,2013-03-19 09:08:00,
2013-03-19 05:09:00,45.2,39.7,29.88,NNW,330,1.7,3.4,81,0.00,,,0.00,WUHU216HW,2013-03-19 09:09:00,
2013-03-19 05:10:00,45.0,39.5,29.88,NW,315,3.3,5.4,81,0.00,,,0.00,WUHU216HW,2013-03-19 09:10:00,
2013-03-19 05:14:00,45.0,39.5,29.89,WNW,293,3.8,5.4,81,0.00,,,0.00,WUHU216HW,2013-03-19 09:14:00,
2013-03-19 05:15:00,44.8,39.3,29.88,NW,311,2.7,5.4,81,0.00,,,0.00,WUHU216HW,2013-03-19 09:15:00,
2013-03-19 05:19:00,44.6,38.5,29.89,North,0,5.6,5.6,79,0.00,,,0.00,WUHU216HW,2013-03-19 09:19:00,
2013-03-19 05:20:00,44.6,38.5,29.89,North,0,4.5,5.6,79,0.00,,,0.00,WUHU216HW,2013-03-19 09:20:00,
2013-03-19 05:21:00,44.6,38.5,29.89,North,0,4.5,5.6,79,0.00,,,0.00,WUHU216HW,2013-03-19 09:21:00,
2013-03-19 05:25:00,44.5,38.3,29.89,NNW,338,4.7,5.6,79,0.00,,,0.00,WUHU216HW,2013-03-19 09:25:00,
2013-03-19 05:26:00,44.5,38.0,29.89,NNW,329,3.9,5.6,78,0.00,,,0.00,WUHU216HW,2013-03-19 09:26:00,
2013-03-19 05:27:00,44.3,37.8,29.89,NNW,331,2.4,5.6,78,0.00,,,0.00,WUHU216HW,2013-03-19 09:27:00,
2013-03-19 05:30:00,44.3,37.8,29.89,North,355,1.9,4.7,78,0.00,,,0.00,WUHU216HW,2013-03-19 09:30:00,
2013-03-19 05:32:00,44.3,37.5,29.89,NNW,336,2.7,4.7,77,0.00,,,0.00,WUHU216HW,2013-03-19 09:32:00,
2013-03-19 05:33:00,44.1,37.4,29.89,NNW,339,2.3,4.7,77,0.00,,,0.00,WUHU216HW,2013-03-19 09:33:00,
2013-03-19 05:35:00,44.1,37.0,29.89,WNW,293,3.8,3.8,76,0.00,,,0.00,WUHU216HW,2013-03-19 09:35:00,
2013-03-19 05:37:00,43.9,36.5,29.90,NNW,347,2.2,3.8,75,0.00,,,0.00,WUHU216HW,2013-03-19 09:37:00,
2013-03-19 05:38:00,43.9,36.8,29.90,NNW,343,1.5,3.8,76,0.00,,,0.00,WUHU216HW,2013-03-19 09:38:00,
2013-03-19 05:40:00,43.7,37.0,29.90,NNW,338,4.9,4.9,77,0.00,,,0.00,WUHU216HW,2013-03-19 09:40:00,
2013-03-19 05:42:00,43.6,36.2,29.90,NNW,327,3.9,4.9,75,0.00,,,0.00,WUHU216HW,2013-03-19 09:42:00,
2013-03-19 05:43:00,43.6,36.5,29.90,NNW,334,3.3,4.9,76,0.00,,,0.00,WUHU216HW,2013-03-19 09:43:00,
2013-03-19 05:44:00,43.6,36.2,29.90,NNE,23,6.3,6.3,75,0.00,,,0.00,WUHU216HW,2013-03-19 09:44:00,
2013-03-19 05:48:00,43.6,36.5,29.90,NNW,338,1.8,6.3,76,0.00,,,0.00,WUHU216HW,2013-03-19 09:48:00,
2013-03-19 05:49:00,43.6,36.5,29.90,NNW,333,1.1,6.3,76,0.00,,,0.00,WUHU216HW,2013-03-19 09:49:00,
2013-03-19 05:50:00,43.6,36.5,29.90,NW,315,1.1,6.3,76,0.00,,,0.00,WUHU216HW,2013-03-19 09:50:00,
2013-03-19 05:53:00,43.2,36.1,29.90,NNW,345,3.3,6.3,76,0.00,,,0.00,WUHU216HW,2013-03-19 09:53:00,
2013-03-19 05:54:00,43.2,36.1,29.91,NNW,332,1.9,4.3,76,0.00,,,0.00,WUHU216HW,2013-03-19 09:54:00,
2013-03-19 05:55:00,43.0,36.3,29.91,North,0,1.8,4.3,77,0.00,,,0.00,WUHU216HW,2013-03-19 09:55:00,
2013-03-19 05:58:00,42.8,36.1,29.91,North,0,2.5,4.3,77,0.00,,,0.00,WUHU216HW,2013-03-19 09:58:00,
2013-03-19 05:59:00,42.7,35.9,29.91,NW,315,4.0,4.3,77,0.00,,,0.00,WUHU216HW,2013-03-19 09:59:00,
2013-03-19 06:00:00,42.7,35.9,29.91,NW,322,3.4,4.3,77,0.00,,,0.00,WUHU216HW,2013-03-19 10:00:00,
2013-03-19 06:01:00,42.7,35.9,29.91,NW,322,3.4,4.3,77,0.00,,,0.00,WUHU216HW,2013-03-19 10:01:00,
2013-03-19 06:03:00,42.7,35.9,29.91,NW,315,1.6,5.4,77,0.00,,,0.00,WUHU216HW,2013-03-19 10:03:00,
2013-03-19 06:05:00,42.5,35.7,29.91,NNW,338,3.8,5.4,77,0.00,,,0.00,WUHU216HW,2013-03-19 10:05:00,
2013-03-19 06:06:00,42.5,35.7,29.92,NNW,333,2.5,5.4,77,0.00,,,0.00,WUHU216HW,2013-03-19 10:06:00,
2013-03-19 06:09:00,42.3,35.9,29.91,NNW,338,1.7,5.4,78,0.00,,,0.00,WUHU216HW,2013-03-19 10:09:00,
2013-03-19 06:10:00,42.1,35.7,29.91,NNW,338,3.6,5.4,78,0.00,,,0.00,WUHU216HW,2013-03-19 10:10:00,
2013-03-19 06:12:00,42.1,35.7,29.91,NNW,338,3.0,3.8,78,0.00,,,0.00,WUHU216HW,2013-03-19 10:12:00,
2013-03-19 06:14:00,42.1,35.7,29.92,NNW,336,1.4,3.8,78,0.00,,,0.00,WUHU216HW,2013-03-19 10:14:00,
2013-03-19 06:17:00,41.8,35.6,29.92,NW,315,1.8,3.6,79,0.00,,,0.00,WUHU216HW,2013-03-19 10:17:00,
2013-03-19 06:19:00,41.6,35.5,29.92,NNW,338,2.0,3.6,79,0.00,,,0.00,WUHU216HW,2013-03-19 10:19:00,
2013-03-19 06:22:00,41.6,35.5,29.92,North,357,2.6,4.5,79,0.00,,,0.00,WUHU216HW,2013-03-19 10:22:00,
2013-03-19 06:23:00,41.4,35.3,29.92,NNW,338,1.8,4.5,79,0.00,,,0.00,WUHU216HW,2013-03-19 10:23:00,
2013-03-19 06:25:00,41.6,35.5,29.92,NNW,338,1.8,4.5,79,0.00,,,0.00,WUHU216HW,2013-03-19 10:25:00,
2013-03-19 06:28:00,41.4,35.3,29.92,NNW,338,2.0,4.5,79,0.00,,,0.00,WUHU216HW,2013-03-19 10:28:00,
2013-03-19 06:29:00,41.4,35.3,29.92,NNW,338,1.8,4.5,79,0.00,,,0.00,WUHU216HW,2013-03-19 10:29:00,
2013-03-19 06:30:00,41.4,35.3,29.92,NNW,329,1.3,4.5,79,0.00,,,0.00,WUHU216HW,2013-03-19 10:30:00,
2013-03-19 06:33:00,41.4,35.3,29.92,NNW,339,1.2,2.0,79,0.00,,,0.00,WUHU216HW,2013-03-19 10:33:00,
2013-03-19 06:34:00,41.2,35.1,29.92,NNW,338,1.8,2.0,79,0.00,,,0.00,WUHU216HW,2013-03-19 10:34:00,
2013-03-19 06:37:00,41.0,34.9,29.92,NNW,342,0.6,2.9,79,0.00,,,0.00,WUHU216HW,2013-03-19 10:37:00,
2013-03-19 06:38:00,41.0,34.9,29.92,NW,315,1.3,2.9,79,0.00,,,0.00,WUHU216HW,2013-03-19 10:38:00,
2013-03-19 06:39:00,41.0,34.9,29.92,NNW,336,1.2,2.9,79,0.00,,,0.00,WUHU216HW,2013-03-19 10:39:00,
2013-03-19 06:40:00,41.0,34.9,29.92,NNW,348,0.8,2.9,79,0.00,,,0.00,WUHU216HW,2013-03-19 10:40:00,
2013-03-19 06:42:00,41.0,34.9,29.92,NW,315,1.8,2.9,79,0.00,,,0.00,WUHU216HW,2013-03-19 10:42:00,
2013-03-19 06:43:00,41.0,34.9,29.92,NW,315,1.0,2.9,79,0.00,,,0.00,WUHU216HW,2013-03-19 10:43:00,
2013-03-19 06:45:00,40.9,34.8,29.92,WSW,248,1.6,1.8,79,0.00,,,0.00,WUHU216HW,2013-03-19 10:45:00,
2013-03-19 06:48:00,40.7,34.7,29.92,West,270,0.9,1.8,79,0.00,,,0.00,WUHU216HW,2013-03-19 10:48:00,
2013-03-19 06:49:00,40.7,34.7,29.92,West,280,0.4,1.8,79,0.00,,,0.00,WUHU216HW,2013-03-19 10:49:00,
2013-03-19 06:50:00,40.5,34.5,29.92,NW,315,1.1,1.8,79,0.00,,,0.00,WUHU216HW,2013-03-19 10:50:00,
2013-03-19 06:53:00,40.1,34.1,29.92,West,270,0.9,1.6,79,0.00,,,0.00,WUHU216HW,2013-03-19 10:53:00,
2013-03-19 06:54:00,40.1,34.1,29.92,NW,315,1.1,1.6,79,0.00,,,0.00,WUHU216HW,2013-03-19 10:54:00,
2013-03-19 06:55:00,40.0,33.9,29.92,NW,315,2.5,2.5,79,0.00,,,0.00,WUHU216HW,2013-03-19 10:55:00,
2013-03-19 06:59:00,40.0,33.9,29.92,NNW,338,1.0,2.5,79,0.00,,,0.00,WUHU216HW,2013-03-19 10:59:00,
2013-03-19 07:00:00,39.8,33.9,29.92,NNW,338,0.6,2.5,79,0.00,,,0.00,WUHU216HW,2013-03-19 11:00:00,
2013-03-19 07:05:00,39.6,33.7,29.92,NW,315,0.4,2.5,79,0.00,,,0.00,WUHU216HW,2013-03-19 11:05:00,
2013-03-19 07:06:00,39.4,33.5,29.92,NNW,330,0.3,1.3,79,0.00,,,0.00,WUHU216HW,2013-03-19 11:06:00,
2013-03-19 07:08:00,39.4,33.5,29.92,North,0,0.4,1.1,79,0.00,,,0.00,WUHU216HW,2013-03-19 11:08:00,
2013-03-19 07:10:00,39.2,33.3,29.92,East,90,1.1,1.1,79,0.00,,,0.00,WUHU216HW,2013-03-19 11:10:00,
2013-03-19 07:11:00,39.2,33.3,29.92,East,90,0.8,1.1,79,0.00,,,0.00,WUHU216HW,2013-03-19 11:11:00,
2013-03-19 07:12:00,39.2,33.7,29.92,NE,45,0.4,1.1,80,0.00,,,0.00,WUHU216HW,2013-03-19 11:12:00,
2013-03-19 07:13:00,39.2,33.7,29.92,NE,45,0.4,1.1,80,0.00,,,0.00,WUHU216HW,2013-03-19 11:13:00,
2013-03-19 07:15:00,39.1,33.5,29.92,ENE,68,0.2,1.1,80,0.00,,,0.00,WUHU216HW,2013-03-19 11:15:00,
2013-03-19 07:17:00,38.9,33.3,29.92,ENE,68,0.4,1.1,80,0.00,,,0.00,WUHU216HW,2013-03-19 11:17:00,
2013-03-19 07:20:00,38.7,33.1,29.92,ENE,68,0.4,0.7,80,0.00,,,0.00,WUHU216HW,2013-03-19 11:20:00,
2013-03-19 07:22:00,38.7,33.1,29.92,ENE,68,0.4,0.7,80,0.00,,,0.00,WUHU216HW,2013-03-19 11:22:00,
2013-03-19 07:23:00,38.7,33.1,29.92,ENE,68,0.0,0.7,80,0.00,,,0.00,WUHU216HW,2013-03-19 11:23:00,
2013-03-19 07:26:00,38.5,32.9,29.92,ENE,68,0.2,0.7,80,0.00,,,0.00,WUHU216HW,2013-03-19 11:26:00,
2013-03-19 07:27:00,38.5,32.9,29.92,ENE,68,0.2,0.7,80,0.00,,,0.00,WUHU216HW,2013-03-19 11:27:00,
2013-03-19 07:28:00,38.5,32.9,29.92,ENE,68,0.0,0.4,80,0.00,,,0.00,WUHU216HW,2013-03-19 11:28:00,
2013-03-19 07:32:00,38.2,32.9,29.92,NE,45,0.0,0.4,81,0.00,,,0.00,WUHU216HW,2013-03-19 11:32:00,
2013-03-19 07:33:00,38.0,32.7,29.92,North,0,0.0,0.4,81,0.00,,,0.00,WUHU216HW,2013-03-19 11:33:00,
2013-03-19 07:34:00,38.0,32.7,29.92,North,0,0.0,0.2,81,0.00,,,0.00,WUHU216HW,2013-03-19 11:34:00,
2013-03-19 07:37:00,37.8,32.5,29.92,North,0,0.0,0.0,81,0.00,,,0.00,WUHU216HW,2013-03-19 11:37:00,
2013-03-19 07:38:00,37.6,32.6,29.92,North,0,0.0,0.0,82,0.00,,,0.00,WUHU216HW,2013-03-19 11:38:00,
2013-03-19 07:40:00,37.4,32.4,29.92,North,0,0.0,0.0,82,0.00,,,0.00,WUHU216HW,2013-03-19 11:40:00,
2013-03-19 07:43:00,37.4,32.8,29.92,WNW,293,0.7,0.7,83,0.00,,,0.00,WUHU216HW,2013-03-19 11:43:00,
2013-03-19 07:48:00,37.1,32.4,29.92,WNW,293,0.0,0.7,83,0.00,,,0.00,WUHU216HW,2013-03-19 11:48:00,
2013-03-19 07:49:00,37.1,32.4,29.92,WNW,293,0.0,0.7,83,0.00,,,0.00,WUHU216HW,2013-03-19 11:49:00,
2013-03-19 07:53:00,36.9,32.2,29.93,WNW,293,0.0,0.4,83,0.00,,,0.00,WUHU216HW,2013-03-19 11:53:00,
2013-03-19 07:54:00,36.9,32.2,29.92,WNW,293,0.0,0.2,83,0.00,,,0.00,WUHU216HW,2013-03-19 11:54:00,
2013-03-19 07:55:00,36.9,32.2,29.92,WNW,293,0.0,0.0,83,0.00,,,0.00,WUHU216HW,2013-03-19 11:55:00,
2013-03-19 07:58:00,36.5,31.9,29.93,WNW,293,0.0,0.0,83,0.00,,,0.00,WUHU216HW,2013-03-19 11:58:00,
2013-03-19 07:59:00,36.5,31.9,29.93,WNW,293,0.0,0.0,83,0.00,,,0.00,WUHU216HW,2013-03-19 11:59:00,
2013-03-19 08:00:00,36.5,31.9,29.93,WNW,293,0.0,0.0,83,0.00,,,0.00,WUHU216HW,2013-03-19 12:00:00,
2013-03-19 08:04:00,36.4,31.7,29.93,WNW,293,0.0,0.0,83,0.00,,,0.00,WUHU216HW,2013-03-19 12:04:00,
2013-03-19 08:05:00,36.4,32.0,29.93,WNW,293,0.0,0.0,84,0.00,,,0.00,WUHU216HW,2013-03-19 12:05:00,
2013-03-19 08:06:00,36.4,32.0,29.93,WNW,293,0.0,0.0,84,0.00,,,0.00,WUHU216HW,2013-03-19 12:06:00,
2013-03-19 08:10:00,36.4,32.0,29.93,WNW,293,0.0,0.0,84,0.00,,,0.00,WUHU216HW,2013-03-19 12:10:00,
2013-03-19 08:12:00,36.2,31.8,29.93,WNW,293,0.0,0.0,84,0.00,,,0.00,WUHU216HW,2013-03-19 12:12:00,
2013-03-19 08:15:00,36.2,31.8,29.93,WNW,293,0.0,0.0,84,0.00,,,0.00,WUHU216HW,2013-03-19 12:15:00,
2013-03-19 08:17:00,36.4,32.0,29.93,WNW,293,0.0,0.0,84,0.00,,,0.00,WUHU216HW,2013-03-19 12:17:00,
2013-03-19 08:18:00,36.4,32.0,29.93,WNW,293,0.0,0.0,84,0.00,,,0.00,WUHU216HW,2013-03-19 12:18:00,
2013-03-19 08:21:00,36.4,32.2,29.93,WNW,293,0.0,0.0,85,0.00,,,0.00,WUHU216HW,2013-03-19 12:21:00,
2013-03-19 08:23:00,36.4,32.2,29.92,WNW,293,0.7,0.7,85,0.00,,,0.00,WUHU216HW,2013-03-19 12:23:00,
2013-03-19 08:26:00,36.7,32.6,29.92,SE,135,0.9,1.1,85,0.00,,,0.00,WUHU216HW,2013-03-19 12:26:00,
2013-03-19 08:27:00,36.7,32.6,29.92,SE,135,1.1,1.1,85,0.00,,,0.00,WUHU216HW,2013-03-19 12:27:00,
2013-03-19 08:28:00,36.7,32.9,29.92,ESE,113,1.1,1.1,86,0.00,,,0.00,WUHU216HW,2013-03-19 12:28:00,
2013-03-19 08:31:00,37.1,33.2,29.92,ESE,113,0.7,1.1,86,0.00,,,0.00,WUHU216HW,2013-03-19 12:31:00,
2013-03-19 08:32:00,37.1,33.2,29.92,ESE,113,0.7,1.1,86,0.00,,,0.00,WUHU216HW,2013-03-19 12:32:00,
2013-03-19 08:34:00,37.3,33.4,29.92,ESE,113,1.1,1.1,86,0.00,,,0.00,WUHU216HW,2013-03-19 12:34:00,
2013-03-19 08:35:00,37.4,33.6,29.92,ESE,113,1.3,1.3,86,0.00,,,0.00,WUHU216HW,2013-03-19 12:35:00,
2013-03-19 08:37:00,37.6,33.8,29.92,SE,135,1.6,1.6,86,0.00,,,0.00,WUHU216HW,2013-03-19 12:37:00,
2013-03-19 08:38:00,37.6,33.8,29.92,SSE,158,1.8,1.8,86,0.00,,,0.00,WUHU216HW,2013-03-19 12:38:00,
2013-03-19 08:39:00,37.8,33.9,29.92,SSE,151,1.3,1.8,86,0.00,,,0.00,WUHU216HW,2013-03-19 12:39:00,
2013-03-19 08:40:00,38.0,34.1,29.92,SE,135,0.9,1.8,86,0.00,,,0.00,WUHU216HW,2013-03-19 12:40:00,
2013-03-19 08:42:00,38.2,34.3,29.92,SE,135,0.7,1.8,86,0.00,,,0.00,WUHU216HW,2013-03-19 12:42:00,
2013-03-19 08:43:00,38.3,34.5,29.92,SE,135,0.6,1.8,86,0.00,,,0.00,WUHU216HW,2013-03-19 12:43:00,
2013-03-19 08:44:00,38.3,34.5,29.92,SE,135,0.7,1.8,86,0.00,,,0.00,WUHU216HW,2013-03-19 12:44:00,
2013-03-19 08:45:00,38.5,34.7,29.92,SSE,158,0.7,1.8,86,0.00,,,0.00,WUHU216HW,2013-03-19 12:45:00,
2013-03-19 08:47:00,38.7,34.8,29.92,SSE,158,0.2,1.8,86,0.00,,,0.00,WUHU216HW,2013-03-19 12:47:00,
2013-03-19 08:49:00,39.1,35.2,29.92,SSE,158,0.0,0.9,86,0.00,,,0.00,WUHU216HW,2013-03-19 12:49:00,
2013-03-19 08:50:00,39.2,35.4,29.92,SSE,158,0.0,0.7,86,0.00,,,0.00,WUHU216HW,2013-03-19 12:50:00,
2013-03-19 08:53:00,39.8,35.9,29.92,SE,135,0.0,0.7,86,0.00,,,0.00,WUHU216HW,2013-03-19 12:53:00,
2013-03-19 08:54:00,40.0,36.1,29.92,SE,135,0.0,0.7,86,0.00,,,0.00,WUHU216HW,2013-03-19 12:54:00,
2013-03-19 08:56:00,40.1,35.9,29.92,SE,135,0.0,0.0,85,0.00,,,0.00,WUHU216HW,2013-03-19 12:56:00,
2013-03-19 08:59:00,40.9,36.4,29.92,SE,135,0.0,0.0,84,0.00,,,0.00,WUHU216HW,2013-03-19 12:59:00,
2013-03-19 09:02:00,41.2,36.7,29.92,SSW,203,0.0,0.0,84,0.00,,,0.00,WUHU216HW,2013-03-19 13:02:00,
2013-03-19 09:06:00,41.9,37.1,29.93,NNW,338,1.5,1.8,83,0.00,,,0.00,WUHU216HW,2013-03-19 13:06:00,
2013-03-19 09:07:00,42.1,37.3,29.93,NNW,338,1.1,1.8,83,0.00,,,0.00,WUHU216HW,2013-03-19 13:07:00,
2013-03-19 09:08:00,42.1,37.3,29.93,NNW,338,0.9,1.8,83,0.00,,,0.00,WUHU216HW,2013-03-19 13:08:00,
2013-03-19 09:12:00,42.7,37.5,29.93,WNW,293,1.6,1.8,82,0.00,,,0.00,WUHU216HW,2013-03-19 13:12:00,
2013-03-19 09:13:00,42.8,37.4,29.93,West,270,1.8,1.8,81,0.00,,,0.00,WUHU216HW,2013-03-19 13:13:00,
2013-03-19 09:17:00,43.0,37.5,29.93,NW,315,0.9,1.8,81,0.00,,,0.00,WUHU216HW,2013-03-19 13:17:00,
2013-03-19 09:18:00,43.0,37.5,29.93,NW,315,1.1,1.8,81,0.00,,,0.00,WUHU216HW,2013-03-19 13:18:00,
2013-03-19 09:23:00,43.6,36.8,29.94,NNW,335,1.8,2.0,77,0.00,,,0.00,WUHU216HW,2013-03-19 13:23:00,
2013-03-19 09:24:00,43.7,37.0,29.94,NW,315,2.5,2.5,77,0.00,,,0.00,WUHU216HW,2013-03-19 13:24:00,
2013-03-19 09:28:00,44.1,36.6,29.94,NNW,329,0.9,3.1,75,0.00,,,0.00,WUHU216HW,2013-03-19 13:28:00,
2013-03-19 09:29:00,44.3,36.8,29.94,NW,315,1.8,3.1,75,0.00,,,0.00,WUHU216HW,2013-03-19 13:29:00,
2013-03-19 09:33:00,44.6,37.2,29.94,North,354,1.3,3.1,75,0.00,,,0.00,WUHU216HW,2013-03-19 13:33:00,
2013-03-19 09:34:00,44.8,37.7,29.94,NNW,338,1.6,3.1,76,0.00,,,0.00,WUHU216HW,2013-03-19 13:34:00,
2013-03-19 09:35:00,45.0,37.9,29.94,NNW,331,1.1,3.1,76,0.00,,,0.00,WUHU216HW,2013-03-19 13:35:00,
2013-03-19 09:38:00,45.4,37.9,29.94,NNE,23,2.0,2.0,75,0.00,,,0.00,WUHU216HW,2013-03-19 13:38:00,
2013-03-19 09:39:00,45.4,38.3,29.94,North,1,1.9,2.0,76,0.00,,,0.00,WUHU216HW,2013-03-19 13:39:00,
2013-03-19 09:40:00,45.5,37.1,29.94,NW,315,1.8,2.0,72,0.00,,,0.00,WUHU216HW,2013-03-19 13:40:00,
2013-03-19 09:44:00,45.9,38.4,29.94,North,0,1.1,2.0,75,0.00,,,0.00,WUHU216HW,2013-03-19 13:44:00,
2013-03-19 09:45:00,46.1,38.6,29.94,NE,45,1.6,2.0,75,0.00,,,0.00,WUHU216HW,2013-03-19 13:45:00,
2013-03-19 09:46:00,46.1,38.6,29.94,WNW,293,0.4,2.0,75,0.00,,,0.00,WUHU216HW,2013-03-19 13:46:00,
2013-03-19 09:49:00,46.4,39.0,29.94,WNW,293,1.8,1.8,75,0.00,,,0.00,WUHU216HW,2013-03-19 13:49:00,
2013-03-19 09:50:00,46.6,39.2,29.94,NW,317,1.5,1.8,75,0.00,,,0.00,WUHU216HW,2013-03-19 13:50:00,
2013-03-19 09:51:00,46.8,39.0,29.95,NW,315,2.0,2.0,74,0.00,,,0.00,WUHU216HW,2013-03-19 13:51:00,
2013-03-19 09:56:00,47.2,38.6,29.95,WNW,293,2.7,3.4,72,0.00,,,0.00,WUHU216HW,2013-03-19 13:56:00,
2013-03-19 09:57:00,47.2,38.3,29.95,NNW,329,2.3,3.4,71,0.00,,,0.00,WUHU216HW,2013-03-19 13:57:00,
2013-03-19 10:01:00,47.3,38.8,29.95,WNW,293,3.4,3.4,72,0.00,,,0.00,WUHU216HW,2013-03-19 14:01:00,
2013-03-19 10:02:00,47.5,38.9,29.95,NNW,331,2.8,3.4,72,0.00,,,0.00,WUHU216HW,2013-03-19 14:02:00,
2013-03-19 10:06:00,47.9,38.5,29.95,NW,315,2.0,3.4,70,0.00,,,0.00,WUHU216HW,2013-03-19 14:06:00,
2013-03-19 10:07:00,47.9,38.2,29.95,North,0,3.8,3.8,69,0.00,,,0.00,WUHU216HW,2013-03-19 14:07:00,
2013-03-19 10:12:00,47.9,35.9,29.96,NNW,338,4.5,4.5,63,0.00,,,0.00,WUHU216HW,2013-03-19 14:12:00,
2013-03-19 10:13:00,47.9,35.9,29.96,NNW,348,4.3,4.5,63,0.00,,,0.00,WUHU216HW,2013-03-19 14:13:00,
2013-03-19 10:18:00,47.5,35.2,29.96,ENE,68,6.5,8.5,62,0.00,,,0.00,WUHU216HW,2013-03-19 14:18:00,
2013-03-19 10:19:00,47.5,34.7,29.96,ENE,68,5.8,8.5,61,0.00,,,0.00,WUHU216HW,2013-03-19 14:19:00,
2013-03-19 10:23:00,47.7,35.7,29.95,NNW,348,3.2,8.5,63,0.00,,,0.00,WUHU216HW,2013-03-19 14:23:00,
2013-03-19 10:24:00,47.9,36.3,29.95,North,0,2.5,6.9,64,0.00,,,0.00,WUHU216HW,2013-03-19 14:24:00,
2013-03-19 10:28:00,48.4,36.4,29.95,NW,323,3.1,5.1,63,0.00,,,0.00,WUHU216HW,2013-03-19 14:28:00,
2013-03-19 10:29:00,48.6,36.2,29.95,North,0,3.4,4.0,62,0.00,,,0.00,WUHU216HW,2013-03-19 14:29:00,
2013-03-19 10:33:00,48.8,36.0,29.95,NNE,23,4.3,4.3,61,0.00,,,0.00,WUHU216HW,2013-03-19 14:33:00,
2013-03-19 10:34:00,49.0,36.9,29.95,NNE,32,2.8,4.3,63,0.00,,,0.00,WUHU216HW,2013-03-19 14:34:00,
2013-03-19 10:35:00,49.0,36.9,29.95,NE,37,1.2,4.3,63,0.00,,,0.00,WUHU216HW,2013-03-19 14:35:00,
2013-03-19 10:39:00,49.5,35.8,29.95,NE,45,4.7,4.7,59,0.00,,,0.00,WUHU216HW,2013-03-19 14:39:00,
2013-03-19 10:40:00,49.5,35.8,29.95,North,1,4.6,4.7,59,0.00,,,0.00,WUHU216HW,2013-03-19 14:40:00,
2013-03-19 10:44:00,49.3,35.7,29.96,North,0,4.3,7.4,59,0.00,,,0.00,WUHU216HW,2013-03-19 14:44:00,
2013-03-19 10:45:00,49.3,36.5,29.96,North,351,2.2,7.4,61,0.00,,,0.00,WUHU216HW,2013-03-19 14:45:00,
2013-03-19 10:46:00,49.3,35.7,29.96,NW,315,5.4,7.4,59,0.00,,,0.00,WUHU216HW,2013-03-19 14:46:00,
2013-03-19 10:47:00,49.5,35.8,29.96,NNW,335,4.0,7.4,59,0.00,,,0.00,WUHU216HW,2013-03-19 14:47:00,
2013-03-19 10:49:00,49.7,35.5,29.96,NW,315,2.7,7.4,58,0.00,,,0.00,WUHU216HW,2013-03-19 14:49:00,
2013-03-19 10:50:00,49.5,33.9,29.97,NNW,338,3.6,7.4,55,0.00,,,0.00,WUHU216HW,2013-03-19 14:50:00,
2013-03-19 10:52:00,49.7,35.0,29.96,North,359,2.7,6.0,57,0.00,,,0.00,WUHU216HW,2013-03-19 14:52:00,
2013-03-19 10:55:00,50.0,34.9,29.96,NE,34,5.2,7.6,56,0.00,,,0.00,WUHU216HW,2013-03-19 14:55:00,
2013-03-19 10:56:00,49.9,35.6,29.96,North,353,2.0,7.6,58,0.00,,,0.00,WUHU216HW,2013-03-19 14:56:00,
2013-03-19 10:57:00,49.9,35.6,29.96,North,353,2.0,7.6,58,0.00,,,0.00,WUHU216HW,2013-03-19 14:57:00,
2013-03-19 10:58:00,50.0,35.4,29.97,North,0,9.6,11.4,57,0.00,,,0.00,WUHU216HW,2013-03-19 14:58:00,
2013-03-19 11:01:00,50.2,35.1,29.96,NNW,343,3.3,11.4,56,0.00,,,0.00,WUHU216HW,2013-03-19 15:01:00,
2013-03-19 11:02:00,50.4,36.2,29.96,North,0,3.4,11.4,58,0.00,,,0.00,WUHU216HW,2013-03-19 15:02:00,
2013-03-19 11:05:00,50.2,34.2,29.96,NNE,23,5.1,11.4,54,0.00,,,0.00,WUHU216HW,2013-03-19 15:05:00,
2013-03-19 11:07:00,50.0,34.5,29.96,North,352,2.6,11.4,55,0.00,,,0.00,WUHU216HW,2013-03-19 15:07:00,
2013-03-19 11:08:00,50.0,34.9,29.96,NNW,338,1.5,5.1,56,0.00,,,0.00,WUHU216HW,2013-03-19 15:08:00,
2013-03-19 11:10:00,50.4,36.6,29.96,WNW,293,2.9,5.1,59,0.00,,,0.00,WUHU216HW,2013-03-19 15:10:00,
2013-03-19 11:12:00,50.9,36.2,29.96,North,0,7.2,7.2,57,0.00,,,0.00,WUHU216HW,2013-03-19 15:12:00,
2013-03-19 11:14:00,50.9,35.3,29.96,NNE,23,8.5,8.5,55,0.00,,,0.00,WUHU216HW,2013-03-19 15:14:00,
2013-03-19 11:15:00,51.1,35.5,29.97,NW,322,4.0,8.5,55,0.00,,,0.00,WUHU216HW,2013-03-19 15:15:00,
2013-03-19 11:18:00,51.5,36.6,29.96,NW,315,1.8,8.5,57,0.00,,,0.00,WUHU216HW,2013-03-19 15:18:00,
2013-03-19 11:19:00,51.5,33.5,29.97,NW,315,8.7,8.7,50,0.00,,,0.00,WUHU216HW,2013-03-19 15:19:00,
2013-03-19 11:22:00,51.7,33.1,29.96,NW,315,5.4,8.7,49,0.00,,,0.00,WUHU216HW,2013-03-19 15:22:00,
2013-03-19 11:23:00,51.8,34.3,29.96,NW,321,3.6,8.7,51,0.00,,,0.00,WUHU216HW,2013-03-19 15:23:00,
2013-03-19 11:24:00,51.8,33.8,29.96,NNW,338,6.9,8.7,50,0.00,,,0.00,WUHU216HW,2013-03-19 15:24:00,
2013-03-19 11:26:00,52.0,34.5,29.96,NNW,338,4.2,8.7,51,0.00,,,0.00,WUHU216HW,2013-03-19 15:26:00,
2013-03-19 11:27:00,52.2,34.7,29.96,NNW,338,4.7,8.7,51,0.00,,,0.00,WUHU216HW,2013-03-19 15:27:00,
2013-03-19 11:29:00,52.2,34.2,29.96,NW,315,5.4,6.9,50,0.00,,,0.00,WUHU216HW,2013-03-19 15:29:00,
2013-03-19 11:32:00,52.4,34.3,29.97,North,0,3.4,6.9,50,0.00,,,0.00,WUHU216HW,2013-03-19 15:32:00,
2013-03-19 11:34:00,52.6,34.9,29.97,NNE,23,4.0,6.7,51,0.00,,,0.00,WUHU216HW,2013-03-19 15:34:00,
2013-03-19 11:35:00,52.6,34.9,29.97,NNE,23,4.0,6.7,51,0.00,,,0.00,WUHU216HW,2013-03-19 15:35:00,
2013-03-19 11:38:00,52.7,34.7,29.97,ENE,68,3.4,6.7,50,0.00,,,0.00,WUHU216HW,2013-03-19 15:38:00,
2013-03-19 11:40:00,52.9,34.8,29.97,NE,45,8.3,8.3,50,0.00,,,0.00,WUHU216HW,2013-03-19 15:40:00,
2013-03-19 11:41:00,52.7,33.6,29.97,NE,37,5.1,8.3,48,0.00,,,0.00,WUHU216HW,2013-03-19 15:41:00,
2013-03-19 11:43:00,52.6,34.9,29.97,North,0,2.3,8.3,51,0.00,,,0.00,WUHU216HW,2013-03-19 15:43:00,
2013-03-19 11:45:00,52.7,34.7,29.97,North,0,4.4,8.3,50,0.00,,,0.00,WUHU216HW,2013-03-19 15:45:00,
2013-03-19 11:46:00,52.9,35.3,29.97,North,352,2.3,8.3,51,0.00,,,0.00,WUHU216HW,2013-03-19 15:46:00,
2013-03-19 11:47:00,52.9,35.3,29.97,North,0,2.5,8.3,51,0.00,,,0.00,WUHU216HW,2013-03-19 15:47:00,
2013-03-19 11:48:00,53.1,35.9,29.97,North,0,2.0,8.3,52,0.00,,,0.00,WUHU216HW,2013-03-19 15:48:00,
2013-03-19 11:51:00,53.6,34.4,29.97,NNW,338,6.3,6.3,48,0.00,,,0.00,WUHU216HW,2013-03-19 15:51:00,
2013-03-19 11:52:00,53.6,34.4,29.97,NNW,338,6.3,6.3,48,0.00,,,0.00,WUHU216HW,2013-03-19 15:52:00,
2013-03-19 11:53:00,53.6,34.9,29.97,NNW,338,3.6,6.3,49,0.00,,,0.00,WUHU216HW,2013-03-19 15:53:00,
2013-03-19 11:54:00,53.8,35.7,29.97,North,0,2.5,6.3,50,0.00,,,0.00,WUHU216HW,2013-03-19 15:54:00,
2013-03-19 11:56:00,54.0,35.2,29.97,NE,41,7.9,9.2,49,0.00,,,0.00,WUHU216HW,2013-03-19 15:56:00,
2013-03-19 11:57:00,53.8,34.5,29.97,NE,39,5.9,9.2,48,0.00,,,0.00,WUHU216HW,2013-03-19 15:57:00,
2013-03-19 11:58:00,53.8,34.5,29.97,North,0,5.1,9.2,48,0.00,,,0.00,WUHU216HW,2013-03-19 15:58:00,
2013-03-19 12:01:00,53.1,34.4,29.97,North,0,2.5,9.2,49,0.00,,,0.00,WUHU216HW,2013-03-19 16:01:00,
2013-03-19 12:02:00,53.1,34.4,29.97,North,0,2.5,9.2,49,0.00,,,0.00,WUHU216HW,2013-03-19 16:02:00,
2013-03-19 12:03:00,53.1,33.3,29.97,North,6,4.5,9.2,47,0.00,,,0.00,WUHU216HW,2013-03-19 16:03:00,
2013-03-19 12:06:00,52.9,34.3,29.97,North,0,4.0,6.5,49,0.00,,,0.00,WUHU216HW,2013-03-19 16:06:00,
2013-03-19 12:09:00,52.9,33.7,29.97,ENE,68,4.4,6.5,48,0.00,,,0.00,WUHU216HW,2013-03-19 16:09:00,
2013-03-19 12:10:00,52.7,34.1,29.97,North,0,4.3,6.5,49,0.00,,,0.00,WUHU216HW,2013-03-19 16:10:00,
2013-03-19 12:12:00,52.7,33.6,29.97,NNW,338,5.6,6.5,48,0.00,,,0.00,WUHU216HW,2013-03-19 16:12:00,
2013-03-19 12:14:00,52.9,33.1,29.97,North,354,3.2,5.6,47,0.00,,,0.00,WUHU216HW,2013-03-19 16:14:00,
2013-03-19 12:15:00,52.9,33.7,29.97,ENE,68,6.3,6.3,48,0.00,,,0.00,WUHU216HW,2013-03-19 16:15:00,
2013-03-19 12:17:00,52.9,33.7,29.97,NE,45,4.9,6.3,48,0.00,,,0.00,WUHU216HW,2013-03-19 16:17:00,
2013-03-19 12:18:00,52.9,33.7,29.97,NE,45,4.9,6.3,48,0.00,,,0.00,WUHU216HW,2013-03-19 16:18:00,
2013-03-19 12:19:00,52.9,34.8,29.97,SW,225,3.4,6.3,50,0.00,,,0.00,WUHU216HW,2013-03-19 16:19:00,
2013-03-19 12:20:00,52.9,34.8,29.97,SW,225,3.4,6.3,50,0.00,,,0.00,WUHU216HW,2013-03-19 16:20:00,
2013-03-19 12:22:00,53.6,35.9,29.97,WNW,293,3.4,6.3,51,0.00,,,0.00,WUHU216HW,2013-03-19 16:22:00,
2013-03-19 12:23:00,53.6,35.9,29.97,WNW,293,3.4,6.3,51,0.00,,,0.00,WUHU216HW,2013-03-19 16:23:00,
2013-03-19 12:24:00,54.0,36.3,29.97,East,90,4.7,5.6,51,0.00,,,0.00,WUHU216HW,2013-03-19 16:24:00,
2013-03-19 12:26:00,54.2,35.4,29.97,NNW,335,4.4,5.6,49,0.00,,,0.00,WUHU216HW,2013-03-19 16:26:00,
2013-03-19 12:28:00,54.2,34.3,29.97,NW,321,3.4,5.6,47,0.00,,,0.00,WUHU216HW,2013-03-19 16:28:00,
2013-03-19 12:30:00,54.4,35.6,29.97,WNW,301,2.9,5.6,49,0.00,,,0.00,WUHU216HW,2013-03-19 16:30:00,
2013-03-19 12:31:00,54.7,35.3,29.97,NE,45,5.6,5.6,48,0.00,,,0.00,WUHU216HW,2013-03-19 16:31:00,
2013-03-19 12:33:00,54.5,34.0,29.97,ENE,68,4.9,5.6,46,0.00,,,0.00,WUHU216HW,2013-03-19 16:33:00,
2013-03-19 12:34:00,54.4,33.8,29.97,ENE,61,3.6,5.6,46,0.00,,,0.00,WUHU216HW,2013-03-19 16:34:00,
2013-03-19 12:35:00,54.2,34.3,29.97,SE,135,2.5,5.6,47,0.00,,,0.00,WUHU216HW,2013-03-19 16:35:00,
2013-03-19 12:37:00,54.2,35.4,29.97,East,90,6.3,6.3,49,0.00,,,0.00,WUHU216HW,2013-03-19 16:37:00,
2013-03-19 12:39:00,54.4,35.6,29.97,NE,35,3.5,6.3,49,0.00,,,0.00,WUHU216HW,2013-03-19 16:39:00,
2013-03-19 12:40:00,54.4,35.0,29.97,NE,45,1.5,6.3,48,0.00,,,0.00,WUHU216HW,2013-03-19 16:40:00,
2013-03-19 12:42:00,54.5,36.3,29.97,North,351,0.9,6.3,50,0.00,,,0.00,WUHU216HW,2013-03-19 16:42:00,
2013-03-19 12:43:00,54.9,37.1,29.97,NE,45,2.0,6.3,51,0.00,,,0.00,WUHU216HW,2013-03-19 16:43:00,
2013-03-19 12:44:00,55.1,37.3,29.97,NE,45,1.9,6.3,51,0.00,,,0.00,WUHU216HW,2013-03-19 16:44:00,
2013-03-19 12:45:00,55.3,36.4,29.97,North,0,3.4,6.3,49,0.00,,,0.00,WUHU216HW,2013-03-19 16:45:00,
2013-03-19 12:48:00,55.8,36.9,29.96,NW,315,1.3,3.4,49,0.00,,,0.00,WUHU216HW,2013-03-19 16:48:00,
2013-03-19 12:49:00,55.8,36.9,29.96,NW,315,1.3,3.4,49,0.00,,,0.00,WUHU216HW,2013-03-19 16:49:00,
2013-03-19 12:50:00,55.8,37.4,29.97,NNW,347,4.0,4.5,50,0.00,,,0.00,WUHU216HW,2013-03-19 16:50:00,
2013-03-19 12:51:00,55.8,36.9,29.97,NNW,339,3.2,4.5,49,0.00,,,0.00,WUHU216HW,2013-03-19 16:51:00,
2013-03-19 12:54:00,55.8,37.4,29.97,NNW,331,2.6,4.5,50,0.00,,,0.00,WUHU216HW,2013-03-19 16:54:00,
2013-03-19 12:55:00,56.0,37.6,29.97,West,266,1.7,4.5,50,0.00,,,0.00,WUHU216HW,2013-03-19 16:55:00,
2013-03-19 12:57:00,56.5,37.0,29.97,NW,315,2.9,4.5,48,0.00,,,0.00,WUHU216HW,2013-03-19 16:57:00,
2013-03-19 12:59:00,56.9,36.8,29.97,NNW,338,2.7,4.5,47,0.00,,,0.00,WUHU216HW,2013-03-19 16:59:00,
2013-03-19 13:00:00,57.2,38.4,29.97,NE,45,3.4,3.4,49,0.00,,,0.00,WUHU216HW,2013-03-19 17:00:00,
2013-03-19 13:01:00,57.2,38.4,29.97,NE,45,3.4,3.4,49,0.00,,,0.00,WUHU216HW,2013-03-19 17:01:00,
2013-03-19 13:02:00,57.2,38.4,29.97,NE,51,1.9,3.4,49,0.00,,,0.00,WUHU216HW,2013-03-19 17:02:00,
2013-03-19 13:04:00,57.2,37.7,29.97,NNW,338,2.7,3.4,48,0.00,,,0.00,WUHU216HW,2013-03-19 17:04:00,
2013-03-19 13:06:00,57.4,37.9,29.97,ESE,113,1.5,3.4,48,0.00,,,0.00,WUHU216HW,2013-03-19 17:06:00,
2013-03-19 13:07:00,57.6,37.4,29.96,North,0,3.8,3.8,47,0.00,,,0.00,WUHU216HW,2013-03-19 17:07:00,
2013-03-19 13:09:00,57.6,36.9,29.96,North,7,2.8,3.8,46,0.00,,,0.00,WUHU216HW,2013-03-19 17:09:00,
2013-03-19 13:11:00,57.6,38.1,29.96,NE,45,3.4,3.8,48,0.00,,,0.00,WUHU216HW,2013-03-19 17:11:00,
2013-03-19 13:12:00,57.6,36.4,29.96,WNW,293,4.9,4.9,45,0.00,,,0.00,WUHU216HW,2013-03-19 17:12:00,
2013-03-19 13:13:00,57.6,36.4,29.96,WNW,293,4.9,4.9,45,0.00,,,0.00,WUHU216HW,2013-03-19 17:13:00,
2013-03-19 13:15:00,57.6,36.4,29.96,WNW,293,7.4,7.4,45,0.00,,,0.00,WUHU216HW,2013-03-19 17:15:00,
2013-03-19 13:16:00,57.6,35.7,29.96,WNW,293,4.5,7.4,44,0.00,,,0.00,WUHU216HW,2013-03-19 17:16:00,
2013-03-19 13:18:00,57.4,36.2,29.97,WNW,299,3.5,7.4,45,0.00,,,0.00,WUHU216HW,2013-03-19 17:18:00,
2013-03-19 13:20:00,57.4,36.7,29.97,WNW,290,3.5,7.4,46,0.00,,,0.00,WUHU216HW,2013-03-19 17:20:00,
2013-03-19 13:23:00,57.6,35.7,29.97,NNW,347,4.0,7.4,44,0.00,,,0.00,WUHU216HW,2013-03-19 17:23:00,
2013-03-19 13:25:00,57.6,35.7,29.97,North,0,4.7,4.7,44,0.00,,,0.00,WUHU216HW,2013-03-19 17:25:00,
2013-03-19 13:28:00,57.4,34.5,29.97,WNW,293,5.4,5.4,42,0.00,,,0.00,WUHU216HW,2013-03-19 17:28:00,
2013-03-19 13:29:00,57.2,34.3,29.97,WNW,293,4.0,5.4,42,0.00,,,0.00,WUHU216HW,2013-03-19 17:29:00,
2013-03-19 13:30:00,57.2,35.5,29.97,NNW,338,4.0,5.4,44,0.00,,,0.00,WUHU216HW,2013-03-19 17:30:00,
2013-03-19 13:34:00,58.1,38.0,29.97,NNW,342,2.2,5.4,47,0.00,,,0.00,WUHU216HW,2013-03-19 17:34:00,
2013-03-19 13:36:00,58.3,38.7,29.97,West,270,3.6,5.4,48,0.00,,,0.00,WUHU216HW,2013-03-19 17:36:00,
2013-03-19 13:39:00,59.0,38.8,29.97,NW,315,2.5,4.9,47,0.00,,,0.00,WUHU216HW,2013-03-19 17:39:00,
2013-03-19 13:41:00,59.2,38.3,29.97,WSW,248,2.9,4.9,46,0.00,,,0.00,WUHU216HW,2013-03-19 17:41:00,
2013-03-19 13:45:00,59.4,36.8,29.97,North,0,2.9,4.9,43,0.00,,,0.00,WUHU216HW,2013-03-19 17:45:00,
2013-03-19 13:47:00,58.9,33.8,29.97,NW,325,4.7,6.7,39,0.00,,,0.00,WUHU216HW,2013-03-19 17:47:00,
2013-03-19 13:50:00,58.7,34.4,29.97,WNW,293,6.0,6.7,40,0.00,,,0.00,WUHU216HW,2013-03-19 17:50:00,
2013-03-19 13:51:00,58.7,34.4,29.97,WNW,293,6.0,6.7,40,0.00,,,0.00,WUHU216HW,2013-03-19 17:51:00,
2013-03-19 13:52:00,58.7,36.2,29.97,West,270,7.6,7.6,43,0.00,,,0.00,WUHU216HW,2013-03-19 17:52:00,
2013-03-19 13:55:00,58.7,35.6,29.96,NNW,330,4.2,7.6,42,0.00,,,0.00,WUHU216HW,2013-03-19 17:55:00,
2013-03-19 13:56:00,58.7,35.6,29.96,North,0,2.9,7.6,42,0.00,,,0.00,WUHU216HW,2013-03-19 17:56:00,
2013-03-19 13:57:00,58.7,35.0,29.97,NNW,343,2.8,7.6,41,0.00,,,0.00,WUHU216HW,2013-03-19 17:57:00,
2013-03-19 14:00:00,59.0,36.5,29.96,NNE,23,3.1,7.6,43,0.00,,,0.00,WUHU216HW,2013-03-19 18:00:00,
2013-03-19 14:02:00,59.0,34.7,29.96,NNW,341,4.0,5.4,40,0.00,,,0.00,WUHU216HW,2013-03-19 18:02:00,
2013-03-19 14:03:00,59.0,34.7,29.96,NNW,341,4.0,5.4,40,0.00,,,0.00,WUHU216HW,2013-03-19 18:03:00,
2013-03-19 14:08:00,58.9,35.2,29.97,NW,307,2.9,4.7,41,0.00,,,0.00,WUHU216HW,2013-03-19 18:08:00,
2013-03-19 14:09:00,58.9,35.7,29.97,WNW,293,1.8,4.7,42,0.00,,,0.00,WUHU216HW,2013-03-19 18:09:00,
2013-03-19 14:13:00,59.4,36.2,29.97,North,0,4.6,4.7,42,0.00,,,0.00,WUHU216HW,2013-03-19 18:13:00,
2013-03-19 14:14:00,59.4,36.2,29.97,North,355,2.5,4.7,42,0.00,,,0.00,WUHU216HW,2013-03-19 18:14:00,
2013-03-19 14:17:00,59.8,37.1,29.97,North,0,2.9,4.7,43,0.00,,,0.00,WUHU216HW,2013-03-19 18:17:00,
2013-03-19 14:18:00,59.9,37.3,29.96,North,0,5.6,5.6,43,0.00,,,0.00,WUHU216HW,2013-03-19 18:18:00,
2013-03-19 14:19:00,59.8,33.9,29.96,NE,45,3.4,5.6,38,0.00,,,0.00,WUHU216HW,2013-03-19 18:19:00,
2013-03-19 14:20:00,59.8,33.9,29.96,NE,45,3.4,5.6,38,0.00,,,0.00,WUHU216HW,2013-03-19 18:20:00,
2013-03-19 14:22:00,59.6,33.1,29.96,North,11,4.6,5.6,37,0.00,,,0.00,WUHU216HW,2013-03-19 18:22:00,
2013-03-19 14:24:00,59.8,36.0,29.96,North,0,2.5,5.6,41,0.00,,,0.00,WUHU216HW,2013-03-19 18:24:00,
2013-03-19 14:25:00,59.9,36.1,29.96,NW,315,2.5,5.6,41,0.00,,,0.00,WUHU216HW,2013-03-19 18:25:00,
2013-03-19 14:27:00,60.3,37.0,29.96,WSW,256,0.7,5.6,42,0.00,,,0.00,WUHU216HW,2013-03-19 18:27:00,
2013-03-19 14:29:00,60.7,36.8,29.96,North,0,3.4,4.9,41,0.00,,,0.00,WUHU216HW,2013-03-19 18:29:00,
2013-03-19 14:30:00,60.7,35.5,29.96,NNE,23,7.2,7.2,39,0.00,,,0.00,WUHU216HW,2013-03-19 18:30:00,
2013-03-19 14:31:00,60.5,34.6,29.96,NNE,16,5.1,7.2,38,0.00,,,0.00,WUHU216HW,2013-03-19 18:31:00,
2013-03-19 14:32:00,60.5,34.6,29.96,North,0,3.6,7.2,38,0.00,,,0.00,WUHU216HW,2013-03-19 18:32:00,
2013-03-19 14:34:00,60.5,33.9,29.96,West,270,4.0,7.2,37,0.00,,,0.00,WUHU216HW,2013-03-19 18:34:00,
2013-03-19 14:36:00,60.5,36.0,29.96,WSW,248,5.1,7.2,40,0.00,,,0.00,WUHU216HW,2013-03-19 18:36:00,
2013-03-19 14:37:00,60.7,36.2,29.96,WNW,287,4.3,7.2,40,0.00,,,0.00,WUHU216HW,2013-03-19 18:37:00,
2013-03-19 14:38:00,60.8,34.2,29.96,North,0,4.7,7.2,37,0.00,,,0.00,WUHU216HW,2013-03-19 18:38:00,
2013-03-19 14:40:00,60.7,34.0,29.96,WNW,293,4.9,5.1,37,0.00,,,0.00,WUHU216HW,2013-03-19 18:40:00,
2013-03-19 14:41:00,60.7,34.7,29.96,WNW,282,4.4,5.1,38,0.00,,,0.00,WUHU216HW,2013-03-19 18:41:00,
2013-03-19 14:44:00,60.8,36.4,29.96,NNW,338,2.7,5.1,40,0.00,,,0.00,WUHU216HW,2013-03-19 18:44:00,
2013-03-19 14:46:00,61.2,35.3,29.96,WSW,248,2.0,4.9,38,0.00,,,0.00,WUHU216HW,2013-03-19 18:46:00,
2013-03-19 14:47:00,61.2,36.7,29.96,NW,315,2.5,4.9,40,0.00,,,0.00,WUHU216HW,2013-03-19 18:47:00,
2013-03-19 14:49:00,61.4,36.8,29.96,NE,45,2.2,4.9,40,0.00,,,0.00,WUHU216HW,2013-03-19 18:49:00,
2013-03-19 14:52:00,61.4,36.8,29.96,WSW,248,4.9,5.4,40,0.00,,,0.00,WUHU216HW,2013-03-19 18:52:00,
2013-03-19 14:54:00,61.6,37.0,29.96,WSW,248,3.4,5.4,40,0.00,,,0.00,WUHU216HW,2013-03-19 18:54:00,
2013-03-19 14:55:00,61.6,37.0,29.96,WSW,248,3.4,5.4,40,0.00,,,0.00,WUHU216HW,2013-03-19 18:55:00,
2013-03-19 14:57:00,61.7,34.3,29.96,NNW,338,4.0,5.4,36,0.00,,,0.00,WUHU216HW,2013-03-19 18:57:00,
2013-03-19 14:59:00,61.6,35.6,29.96,West,270,2.7,5.4,38,0.00,,,0.00,WUHU216HW,2013-03-19 18:59:00,
2013-03-19 15:00:00,61.6,35.6,29.96,West,270,2.7,4.9,38,0.00,,,0.00,WUHU216HW,2013-03-19 19:00:00,
2013-03-19 15:02:00,61.6,36.3,29.96,NW,315,5.2,6.5,39,0.00,,,0.00,WUHU216HW,2013-03-19 19:02:00,
2013-03-19 15:05:00,61.9,36.6,29.96,North,0,3.4,6.5,39,0.00,,,0.00,WUHU216HW,2013-03-19 19:05:00,
2013-03-19 15:08:00,62.3,36.2,29.96,WNW,289,3.2,6.5,38,0.00,,,0.00,WUHU216HW,2013-03-19 19:08:00,
2013-03-19 15:10:00,62.3,35.5,29.96,NNW,338,3.6,6.5,37,0.00,,,0.00,WUHU216HW,2013-03-19 19:10:00,
2013-03-19 15:13:00,62.3,34.7,29.96,NNE,23,4.7,4.7,36,0.00,,,0.00,WUHU216HW,2013-03-19 19:13:00,
2013-03-19 15:15:00,62.1,36.8,29.95,North,0,2.5,4.7,39,0.00,,,0.00,WUHU216HW,2013-03-19 19:15:00,
2013-03-19 15:17:00,62.3,36.9,29.95,NNW,338,4.9,4.9,39,0.00,,,0.00,WUHU216HW,2013-03-19 19:17:00,
2013-03-19 15:18:00,62.1,33.2,29.96,NNW,338,5.1,5.1,34,0.00,,,0.00,WUHU216HW,2013-03-19 19:18:00,
2013-03-19 15:21:00,61.6,32.0,29.95,NNW,338,5.1,5.1,33,0.00,,,0.00,WUHU216HW,2013-03-19 19:21:00,
2013-03-19 15:22:00,61.6,31.2,29.95,North,6,4.4,5.1,32,0.00,,,0.00,WUHU216HW,2013-03-19 19:22:00,
2013-03-19 15:23:00,61.6,34.1,29.95,NW,315,2.2,5.1,36,0.00,,,0.00,WUHU216HW,2013-03-19 19:23:00,
2013-03-19 15:27:00,61.6,31.2,29.95,NW,315,5.4,5.8,32,0.00,,,0.00,WUHU216HW,2013-03-19 19:27:00,
2013-03-19 15:28:00,61.6,32.0,29.95,WNW,293,5.6,5.8,33,0.00,,,0.00,WUHU216HW,2013-03-19 19:28:00,
2013-03-19 15:29:00,61.7,32.1,29.95,West,279,4.1,5.8,33,0.00,,,0.00,WUHU216HW,2013-03-19 19:29:00,
2013-03-19 15:32:00,62.1,33.2,29.95,WNW,293,3.1,5.8,34,0.00,,,0.00,WUHU216HW,2013-03-19 19:32:00,
2013-03-19 15:34:00,62.3,34.0,29.95,NW,315,3.4,5.8,35,0.00,,,0.00,WUHU216HW,2013-03-19 19:34:00,
2013-03-19 15:35:00,62.3,31.9,29.95,NW,315,5.8,5.8,32,0.00,,,0.00,WUHU216HW,2013-03-19 19:35:00,
2013-03-19 15:38:00,62.6,32.9,29.95,North,0,4.5,5.8,33,0.00,,,0.00,WUHU216HW,2013-03-19 19:38:00,
2013-03-19 15:39:00,62.6,32.9,29.95,North,0,4.5,5.8,33,0.00,,,0.00,WUHU216HW,2013-03-19 19:39:00,
2013-03-19 15:40:00,62.6,33.7,29.95,North,7,3.3,5.8,34,0.00,,,0.00,WUHU216HW,2013-03-19 19:40:00,
2013-03-19 15:41:00,62.6,33.7,29.95,NNE,23,4.7,5.8,34,0.00,,,0.00,WUHU216HW,2013-03-19 19:41:00,
2013-03-19 15:44:00,62.5,31.3,29.95,NW,315,5.9,7.8,31,0.00,,,0.00,WUHU216HW,2013-03-19 19:44:00,
2013-03-19 15:45:00,62.5,31.3,29.95,NW,325,3.7,7.8,31,0.00,,,0.00,WUHU216HW,2013-03-19 19:45:00,
2013-03-19 15:47:00,62.3,31.1,29.96,West,270,6.3,7.8,31,0.00,,,0.00,WUHU216HW,2013-03-19 19:47:00,
2013-03-19 15:49:00,62.3,31.9,29.96,NNE,25,4.7,7.8,32,0.00,,,0.00,WUHU216HW,2013-03-19 19:49:00,
2013-03-19 15:50:00,62.5,32.8,29.96,WSW,248,4.9,7.8,33,0.00,,,0.00,WUHU216HW,2013-03-19 19:50:00,
2013-03-19 15:54:00,62.6,32.2,29.96,NE,45,7.2,7.2,32,0.00,,,0.00,WUHU216HW,2013-03-19 19:54:00,
2013-03-19 15:56:00,62.5,32.8,29.95,NNW,340,3.3,7.2,33,0.00,,,0.00,WUHU216HW,2013-03-19 19:56:00,
2013-03-19 15:59:00,62.8,31.7,29.95,NNW,329,2.9,7.2,31,0.00,,,0.00,WUHU216HW,2013-03-19 19:59:00,
2013-03-19 16:02:00,62.8,31.7,29.95,NNW,338,2.7,7.2,31,0.00,,,0.00,WUHU216HW,2013-03-19 20:02:00,
2013-03-19 16:03:00,63.0,32.6,29.95,NW,315,1.9,7.2,32,0.00,,,0.00,WUHU216HW,2013-03-19 20:03:00,
2013-03-19 16:04:00,63.0,33.3,29.95,NNW,334,1.5,3.6,33,0.00,,,0.00,WUHU216HW,2013-03-19 20:04:00,
2013-03-19 16:05:00,63.0,33.3,29.95,NNW,334,1.5,3.4,33,0.00,,,0.00,WUHU216HW,2013-03-19 20:05:00,
2013-03-19 16:07:00,63.0,32.6,29.95,NNW,328,2.3,3.4,32,0.00,,,0.00,WUHU216HW,2013-03-19 20:07:00,
2013-03-19 16:08:00,63.2,32.7,29.95,North,0,2.7,3.4,32,0.00,,,0.00,WUHU216HW,2013-03-19 20:08:00,
2013-03-19 16:09:00,63.2,33.4,29.95,NNW,331,2.0,2.9,33,0.00,,,0.00,WUHU216HW,2013-03-19 20:09:00,
2013-03-19 16:10:00,63.2,33.4,29.95,NNW,331,2.0,2.9,33,0.00,,,0.00,WUHU216HW,2013-03-19 20:10:00,
2013-03-19 16:12:00,63.5,32.3,29.95,WNW,293,4.3,4.3,31,0.00,,,0.00,WUHU216HW,2013-03-19 20:12:00,
2013-03-19 16:14:00,63.5,33.8,29.95,North,0,4.8,5.6,33,0.00,,,0.00,WUHU216HW,2013-03-19 20:14:00,
2013-03-19 16:15:00,63.4,30.4,29.95,North,0,4.5,5.6,29,0.00,,,0.00,WUHU216HW,2013-03-19 20:15:00,
2013-03-19 16:17:00,63.0,32.6,29.95,NNW,338,4.7,5.6,32,0.00,,,0.00,WUHU216HW,2013-03-19 20:17:00,
2013-03-19 16:19:00,62.8,31.7,29.95,NNW,334,4.1,5.6,31,0.00,,,0.00,WUHU216HW,2013-03-19 20:19:00,
2013-03-19 16:20:00,62.5,31.3,29.95,WNW,293,5.6,5.6,31,0.00,,,0.00,WUHU216HW,2013-03-19 20:20:00,
2013-03-19 16:22:00,62.5,31.3,29.95,NW,315,3.6,5.6,31,0.00,,,0.00,WUHU216HW,2013-03-19 20:22:00,
2013-03-19 16:24:00,62.3,29.5,29.95,NNW,337,3.5,5.6,29,0.00,,,0.00,WUHU216HW,2013-03-19 20:24:00,
2013-03-19 16:25:00,62.5,29.6,29.95,North,0,3.2,5.6,29,0.00,,,0.00,WUHU216HW,2013-03-19 20:25:00,
2013-03-19 16:26:00,62.3,29.5,29.95,NNW,338,4.7,5.6,29,0.00,,,0.00,WUHU216HW,2013-03-19 20:26:00,
2013-03-19 16:28:00,62.3,31.1,29.94,NNW,330,1.9,5.6,31,0.00,,,0.00,WUHU216HW,2013-03-19 20:28:00,
2013-03-19 16:29:00,62.5,32.8,29.94,NW,315,1.1,5.6,33,0.00,,,0.00,WUHU216HW,2013-03-19 20:29:00,
2013-03-19 16:30:00,62.5,32.8,29.94,NW,315,1.1,5.6,33,0.00,,,0.00,WUHU216HW,2013-03-19 20:30:00,
2013-03-19 16:32:00,62.8,33.9,29.94,WNW,299,0.7,4.7,34,0.00,,,0.00,WUHU216HW,2013-03-19 20:32:00,
2013-03-19 16:34:00,63.2,34.1,29.94,North,0,2.7,4.7,34,0.00,,,0.00,WUHU216HW,2013-03-19 20:34:00,
2013-03-19 16:35:00,63.2,33.4,29.94,North,0,2.0,4.7,33,0.00,,,0.00,WUHU216HW,2013-03-19 20:35:00,
2013-03-19 16:36:00,63.4,32.9,29.94,WNW,293,3.4,3.4,32,0.00,,,0.00,WUHU216HW,2013-03-19 20:36:00,
2013-03-19 16:37:00,63.7,33.2,29.94,WNW,300,2.8,3.8,32,0.00,,,0.00,WUHU216HW,2013-03-19 20:37:00,
2013-03-19 16:39:00,63.7,32.5,29.94,NNW,338,3.4,3.8,31,0.00,,,0.00,WUHU216HW,2013-03-19 20:39:00,
2013-03-19 16:41:00,63.7,33.2,29.94,ENE,68,6.3,6.3,32,0.00,,,0.00,WUHU216HW,2013-03-19 20:41:00,
2013-03-19 16:43:00,63.4,32.1,29.94,NW,315,4.5,6.3,31,0.00,,,0.00,WUHU216HW,2013-03-19 20:43:00,
2013-03-19 16:44:00,63.4,32.9,29.94,NW,309,2.6,6.3,32,0.00,,,0.00,WUHU216HW,2013-03-19 20:44:00,
2013-03-19 16:48:00,63.2,32.7,29.94,NW,315,4.4,6.3,32,0.00,,,0.00,WUHU216HW,2013-03-19 20:48:00,
2013-03-19 16:49:00,63.0,32.6,29.94,NNW,334,2.6,6.3,32,0.00,,,0.00,WUHU216HW,2013-03-19 20:49:00,
2013-03-19 16:50:00,63.0,31.9,29.94,NW,315,3.4,6.3,31,0.00,,,0.00,WUHU216HW,2013-03-19 20:50:00,
2013-03-19 16:53:00,62.6,28.8,29.94,NW,315,6.9,6.9,28,0.00,,,0.00,WUHU216HW,2013-03-19 20:53:00,
2013-03-19 16:54:00,62.3,28.5,29.94,NNW,331,5.3,6.9,28,0.00,,,0.00,WUHU216HW,2013-03-19 20:54:00,
2013-03-19 16:55:00,62.1,28.4,29.94,NNE,23,4.9,6.9,28,0.00,,,0.00,WUHU216HW,2013-03-19 20:55:00,
2013-03-19 16:56:00,61.9,30.2,29.94,North,358,3.9,6.9,30,0.00,,,0.00,WUHU216HW,2013-03-19 20:56:00,
2013-03-19 16:58:00,61.6,28.9,29.94,NW,315,4.0,6.9,29,0.00,,,0.00,WUHU216HW,2013-03-19 20:58:00,
2013-03-19 16:59:00,61.6,30.5,29.94,WSW,248,2.7,6.9,31,0.00,,,0.00,WUHU216HW,2013-03-19 20:59:00,
2013-03-19 17:01:00,61.6,29.8,29.94,NW,315,3.4,6.9,30,0.00,,,0.00,WUHU216HW,2013-03-19 21:01:00,
2013-03-19 17:03:00,61.9,31.6,29.94,NW,315,3.5,4.9,32,0.00,,,0.00,WUHU216HW,2013-03-19 21:03:00,
2013-03-19 17:04:00,61.9,30.9,29.94,NNW,328,1.6,4.5,31,0.00,,,0.00,WUHU216HW,2013-03-19 21:04:00,
2013-03-19 17:06:00,62.1,31.8,29.94,North,0,4.0,4.5,32,0.00,,,0.00,WUHU216HW,2013-03-19 21:06:00,
2013-03-19 17:09:00,62.3,32.6,29.94,WSW,248,2.5,4.5,33,0.00,,,0.00,WUHU216HW,2013-03-19 21:09:00,
2013-03-19 17:10:00,62.5,32.8,29.94,WNW,289,2.3,4.5,33,0.00,,,0.00,WUHU216HW,2013-03-19 21:10:00,
2013-03-19 17:12:00,62.6,30.8,29.94,NNW,348,3.5,4.5,30,0.00,,,0.00,WUHU216HW,2013-03-19 21:12:00,
2013-03-19 17:14:00,62.5,29.6,29.94,NNW,328,3.5,4.0,29,0.00,,,0.00,WUHU216HW,2013-03-19 21:14:00,
2013-03-19 17:15:00,62.6,31.5,29.94,West,278,3.7,4.9,31,0.00,,,0.00,WUHU216HW,2013-03-19 21:15:00,
2013-03-19 17:17:00,62.5,30.6,29.94,WNW,293,3.8,4.9,30,0.00,,,0.00,WUHU216HW,2013-03-19 21:17:00,
2013-03-19 17:19:00,62.3,31.1,29.94,NNW,338,6.3,6.3,31,0.00,,,0.00,WUHU216HW,2013-03-19 21:19:00,
2013-03-19 17:20:00,61.9,30.2,29.94,NNW,330,4.1,6.3,30,0.00,,,0.00,WUHU216HW,2013-03-19 21:20:00,
2013-03-19 17:21:00,61.9,30.2,29.94,NNW,330,4.1,6.3,30,0.00,,,0.00,WUHU216HW,2013-03-19 21:21:00,
2013-03-19 17:23:00,61.6,31.2,29.94,North,0,3.8,6.3,32,0.00,,,0.00,WUHU216HW,2013-03-19 21:23:00,
2013-03-19 17:24:00,61.4,31.1,29.94,West,266,3.0,6.3,32,0.00,,,0.00,WUHU216HW,2013-03-19 21:24:00,
2013-03-19 17:25:00,61.2,31.7,29.94,NNW,338,4.7,6.3,33,0.00,,,0.00,WUHU216HW,2013-03-19 21:25:00,
2013-03-19 17:27:00,61.2,31.0,29.94,NNW,329,3.7,6.3,32,0.00,,,0.00,WUHU216HW,2013-03-19 21:27:00,
2013-03-19 17:28:00,60.8,28.2,29.94,WNW,284,4.3,5.4,29,0.00,,,0.00,WUHU216HW,2013-03-19 21:28:00,
2013-03-19 17:30:00,60.8,29.2,29.94,WNW,287,2.8,5.1,30,0.00,,,0.00,WUHU216HW,2013-03-19 21:30:00,
2013-03-19 17:31:00,60.8,29.9,29.94,NW,315,2.0,5.1,31,0.00,,,0.00,WUHU216HW,2013-03-19 21:31:00,
2013-03-19 17:32:00,60.8,30.6,29.94,NNW,338,3.1,5.1,32,0.00,,,0.00,WUHU216HW,2013-03-19 21:32:00,
2013-03-19 17:35:00,60.8,29.2,29.94,WNW,293,3.4,5.1,30,0.00,,,0.00,WUHU216HW,2013-03-19 21:35:00,
2013-03-19 17:36:00,60.8,29.2,29.94,WNW,293,3.4,5.1,30,0.00,,,0.00,WUHU216HW,2013-03-19 21:36:00,
2013-03-19 17:37:00,60.8,28.2,29.94,WNW,293,4.7,5.1,29,0.00,,,0.00,WUHU216HW,2013-03-19 21:37:00,
2013-03-19 17:41:00,61.0,30.1,29.94,NNW,338,2.9,4.7,31,0.00,,,0.00,WUHU216HW,2013-03-19 21:41:00,
2013-03-19 17:42:00,61.0,30.8,29.94,NW,315,3.4,4.7,32,0.00,,,0.00,WUHU216HW,2013-03-19 21:42:00,
2013-03-19 17:43:00,61.2,31.0,29.94,WNW,293,5.6,5.6,32,0.00,,,0.00,WUHU216HW,2013-03-19 21:43:00,
2013-03-19 17:46:00,61.0,28.4,29.94,NNW,338,4.0,5.6,29,0.00,,,0.00,WUHU216HW,2013-03-19 21:46:00,
2013-03-19 17:47:00,60.8,29.9,29.94,NNW,339,3.3,5.6,31,0.00,,,0.00,WUHU216HW,2013-03-19 21:47:00,
2013-03-19 17:48:00,60.8,29.9,29.94,NNW,339,3.3,5.6,31,0.00,,,0.00,WUHU216HW,2013-03-19 21:48:00,
2013-03-19 17:51:00,60.8,28.2,29.94,NNW,338,4.5,5.6,29,0.00,,,0.00,WUHU216HW,2013-03-19 21:51:00,
2013-03-19 17:53:00,60.7,29.0,29.94,WNW,301,2.3,4.5,30,0.00,,,0.00,WUHU216HW,2013-03-19 21:53:00,
2013-03-19 17:58:00,60.3,26.8,29.94,NW,315,4.7,7.2,28,0.00,,,0.00,WUHU216HW,2013-03-19 21:58:00,
2013-03-19 17:59:00,60.1,26.6,29.94,NW,315,4.7,7.2,28,0.00,,,0.00,WUHU216HW,2013-03-19 21:59:00,
2013-03-19 18:04:00,59.9,28.4,29.94,West,278,2.2,7.2,30,0.00,,,0.00,WUHU216HW,2013-03-19 22:04:00,
2013-03-19 18:09:00,59.9,28.4,29.94,WNW,301,1.6,5.4,30,0.00,,,0.00,WUHU216HW,2013-03-19 22:09:00,
2013-03-19 18:10:00,59.9,28.4,29.94,NNW,338,3.8,4.9,30,0.00,,,0.00,WUHU216HW,2013-03-19 22:10:00,
2013-03-19 18:14:00,59.9,26.6,29.94,NW,315,4.5,5.6,28,0.00,,,0.00,WUHU216HW,2013-03-19 22:14:00,
2013-03-19 18:15:00,59.9,27.5,29.94,NW,315,4.3,5.6,29,0.00,,,0.00,WUHU216HW,2013-03-19 22:15:00,
2013-03-19 18:16:00,59.8,27.4,29.94,NNW,338,5.4,5.6,29,0.00,,,0.00,WUHU216HW,2013-03-19 22:16:00,
2013-03-19 18:18:00,59.8,27.4,29.94,NW,314,3.7,5.6,29,0.00,,,0.00,WUHU216HW,2013-03-19 22:18:00,
2013-03-19 18:19:00,59.6,26.2,29.94,WNW,293,2.7,5.6,28,0.00,,,0.00,WUHU216HW,2013-03-19 22:19:00,
2013-03-19 18:20:00,59.6,27.2,29.94,WNW,293,1.8,5.4,29,0.00,,,0.00,WUHU216HW,2013-03-19 22:20:00,
2013-03-19 18:21:00,59.6,27.2,29.94,WNW,293,1.8,5.4,29,0.00,,,0.00,WUHU216HW,2013-03-19 22:21:00,
2013-03-19 18:23:00,59.6,28.2,29.94,NW,317,3.7,5.4,30,0.00,,,0.00,WUHU216HW,2013-03-19 22:23:00,
2013-03-19 18:25:00,59.6,26.2,29.94,NW,315,7.2,7.2,28,0.00,,,0.00,WUHU216HW,2013-03-19 22:25:00,
2013-03-19 18:26:00,59.4,26.1,29.94,WNW,293,7.1,7.2,28,0.00,,,0.00,WUHU216HW,2013-03-19 22:26:00,
2013-03-19 18:27:00,59.4,27.0,29.94,WNW,288,4.6,7.2,29,0.00,,,0.00,WUHU216HW,2013-03-19 22:27:00,
2013-03-19 18:28:00,59.4,27.0,29.94,NW,308,1.8,7.2,29,0.00,,,0.00,WUHU216HW,2013-03-19 22:28:00,
2013-03-19 18:30:00,59.4,28.0,29.94,NNW,338,2.5,7.2,30,0.00,,,0.00,WUHU216HW,2013-03-19 22:30:00,
2013-03-19 18:31:00,59.4,27.0,29.95,NW,315,5.8,7.2,29,0.02,,,0.02,WUHU216HW,2013-03-19 22:31:00,
2013-03-19 18:33:00,59.2,26.9,29.95,NW,324,4.0,7.2,29,0.02,,,0.02,WUHU216HW,2013-03-19 22:33:00,
2013-03-19 18:34:00,59.2,26.9,29.95,NW,324,4.0,7.2,29,0.02,,,0.02,WUHU216HW,2013-03-19 22:34:00,
2013-03-19 18:35:00,59.0,25.7,29.94,WNW,293,2.9,5.8,28,0.02,,,0.02,WUHU216HW,2013-03-19 22:35:00,
2013-03-19 18:36:00,59.0,26.7,29.94,WNW,293,4.3,5.8,29,0.02,,,0.02,WUHU216HW,2013-03-19 22:36:00,
2013-03-19 18:39:00,58.9,27.5,29.95,NW,315,4.7,5.8,30,0.02,,,0.02,WUHU216HW,2013-03-19 22:39:00,
2013-03-19 18:41:00,58.9,26.6,29.95,NNW,338,5.1,5.8,29,0.02,,,0.02,WUHU216HW,2013-03-19 22:41:00,
2013-03-19 18:42:00,58.7,25.5,29.95,NNW,338,4.8,5.4,28,0.02,,,0.02,WUHU216HW,2013-03-19 22:42:00,
2013-03-19 18:45:00,58.5,27.3,29.95,NW,325,2.3,5.4,30,0.02,,,0.02,WUHU216HW,2013-03-19 22:45:00,
2013-03-19 18:47:00,58.3,27.1,29.95,NW,315,2.5,5.4,30,0.02,,,0.02,WUHU216HW,2013-03-19 22:47:00,
2013-03-19 18:50:00,58.3,27.8,29.95,NW,315,5.4,5.4,31,0.02,,,0.02,WUHU216HW,2013-03-19 22:50:00,
2013-03-19 18:52:00,58.1,26.9,29.96,NNW,348,2.7,5.4,30,0.02,,,0.02,WUHU216HW,2013-03-19 22:52:00,
2013-03-19 18:53:00,58.1,27.6,29.96,NNE,14,2.9,5.4,31,0.02,,,0.02,WUHU216HW,2013-03-19 22:53:00,
2013-03-19 18:55:00,58.1,27.6,29.96,NNW,338,1.6,5.4,31,0.02,,,0.02,WUHU216HW,2013-03-19 22:55:00,
2013-03-19 18:58:00,58.0,27.5,29.96,NNE,16,3.7,5.4,31,0.02,,,0.02,WUHU216HW,2013-03-19 22:58:00,
2013-03-19 18:59:00,58.0,26.7,29.96,NNW,338,5.1,5.4,30,0.02,,,0.02,WUHU216HW,2013-03-19 22:59:00,
2013-03-19 19:01:00,57.8,25.7,29.95,NNW,334,6.8,7.8,29,0.02,,,0.02,WUHU216HW,2013-03-19 23:01:00,
2013-03-19 19:02:00,57.8,25.7,29.95,NNW,345,4.4,7.8,29,0.02,,,0.02,WUHU216HW,2013-03-19 23:02:00,
2013-03-19 19:03:00,57.6,25.5,29.95,NNW,338,4.0,7.8,29,0.02,,,0.02,WUHU216HW,2013-03-19 23:03:00,
2013-03-19 19:04:00,57.6,25.5,29.96,NNW,338,3.7,7.8,29,0.02,,,0.02,WUHU216HW,2013-03-19 23:04:00,
2013-03-19 19:07:00,57.4,25.3,29.96,NNW,330,2.6,7.8,29,0.02,,,0.02,WUHU216HW,2013-03-19 23:07:00,
2013-03-19 19:08:00,57.2,25.1,29.96,WNW,293,5.1,7.8,29,0.02,,,0.02,WUHU216HW,2013-03-19 23:08:00,
2013-03-19 19:10:00,57.2,25.1,29.96,NW,305,3.5,5.8,29,0.02,,,0.02,WUHU216HW,2013-03-19 23:10:00,
2013-03-19 19:12:00,57.1,25.0,29.96,North,0,5.4,5.4,29,0.02,,,0.02,WUHU216HW,2013-03-19 23:12:00,
2013-03-19 19:13:00,56.9,24.9,29.96,North,355,3.5,5.4,29,0.02,,,0.02,WUHU216HW,2013-03-19 23:13:00,
2013-03-19 19:15:00,56.9,25.7,29.96,North,0,2.2,5.4,30,0.02,,,0.02,WUHU216HW,2013-03-19 23:15:00,
2013-03-19 19:17:00,56.7,25.7,29.96,North,0,1.5,5.4,30,0.02,,,0.02,WUHU216HW,2013-03-19 23:17:00,
2013-03-19 19:18:00,56.7,25.7,29.96,NNW,338,3.4,5.4,30,0.02,,,0.02,WUHU216HW,2013-03-19 23:18:00,
2013-03-19 19:19:00,56.7,25.7,29.96,NNW,338,3.4,5.4,30,0.02,,,0.02,WUHU216HW,2013-03-19 23:19:00,
2013-03-19 19:22:00,56.5,24.5,29.96,NW,315,3.4,5.4,29,0.02,,,0.02,WUHU216HW,2013-03-19 23:22:00,
2013-03-19 19:23:00,56.5,25.5,29.96,NNW,335,3.1,3.6,30,0.02,,,0.02,WUHU216HW,2013-03-19 23:23:00,
2013-03-19 19:24:00,56.3,24.3,29.96,North,0,2.5,3.6,29,0.02,,,0.02,WUHU216HW,2013-03-19 23:24:00,
2013-03-19 19:27:00,56.2,24.2,29.96,NNW,345,4.4,5.8,29,0.02,,,0.02,WUHU216HW,2013-03-19 23:27:00,
2013-03-19 19:28:00,56.0,24.0,29.96,NW,315,3.4,5.8,29,0.00,,,0.02,WUHU216HW,2013-03-19 23:28:00,
2013-03-19 19:29:00,55.8,23.9,29.96,NW,324,2.8,5.8,29,0.00,,,0.02,WUHU216HW,2013-03-19 23:29:00,
2013-03-19 19:30:00,55.8,23.9,29.96,NW,315,2.5,5.8,29,0.00,,,0.02,WUHU216HW,2013-03-19 23:30:00,
2013-03-19 19:32:00,55.8,23.9,29.96,NNW,338,3.1,5.8,29,0.00,,,0.02,WUHU216HW,2013-03-19 23:32:00,
2013-03-19 19:33:00,55.6,22.8,29.96,NNW,348,3.0,5.8,28,0.00,,,0.02,WUHU216HW,2013-03-19 23:33:00,
2013-03-19 19:35:00,55.6,23.7,29.97,WNW,293,3.4,5.8,29,0.00,,,0.02,WUHU216HW,2013-03-19 23:35:00,
2013-03-19 19:36:00,55.4,23.6,29.97,NNW,329,3.0,3.4,29,0.00,,,0.02,WUHU216HW,2013-03-19 23:36:00,
2013-03-19 19:38:00,55.4,23.6,29.97,NNW,338,2.5,3.4,29,0.00,,,0.02,WUHU216HW,2013-03-19 23:38:00,
2013-03-19 19:39:00,55.3,24.3,29.97,NNW,338,1.8,3.4,30,0.00,,,0.02,WUHU216HW,2013-03-19 23:39:00,
2013-03-19 19:42:00,55.1,24.9,29.97,North,6,2.7,3.4,31,0.00,,,0.02,WUHU216HW,2013-03-19 23:42:00,
2013-03-19 19:43:00,55.1,24.2,29.97,NNW,338,2.5,3.4,30,0.00,,,0.02,WUHU216HW,2013-03-19 23:43:00,
2013-03-19 19:45:00,54.9,24.0,29.97,North,0,4.0,4.0,30,0.00,,,0.02,WUHU216HW,2013-03-19 23:45:00,
2013-03-19 19:47:00,54.9,24.0,29.97,NW,315,4.7,4.7,30,0.00,,,0.02,WUHU216HW,2013-03-19 23:47:00,
2013-03-19 19:49:00,54.9,24.8,29.97,NNW,338,2.9,4.7,31,0.00,,,0.02,WUHU216HW,2013-03-19 23:49:00,
2013-03-19 19:52:00,54.7,25.3,29.97,North,0,2.2,4.7,32,0.00,,,0.02,WUHU216HW,2013-03-19 23:52:00,
2013-03-19 19:53:00,54.7,25.3,29.96,North,0,2.1,4.7,32,0.00,,,0.02,WUHU216HW,2013-03-19 23:53:00,
2013-03-19 19:55:00,54.5,24.5,29.97,NNW,338,3.2,4.7,31,0.00,,,0.02,WUHU216HW,2013-03-19 23:55:00,
2013-03-19 19:57:00,54.4,25.0,29.97,North,0,1.8,3.4,32,0.00,,,0.02,WUHU216HW,2013-03-19 23:57:00,
2013-03-19 19:59:00,54.4,25.0,29.96,NNW,346,2.0,3.4,32,0.00,,,0.02,WUHU216HW,2013-03-19 23:59:00,
2013-03-19 20:00:00,54.2,24.8,29.96,North,0,5.1,5.1,32,0.00,,,0.02,WUHU216HW,2013-03-20 00:00:00,
2013-03-19 20:02:00,54.2,24.1,29.96,North,0,5.5,9.8,31,0.00,,,0.02,WUHU216HW,2013-03-20 00:02:00,
2013-03-19 20:04:00,54.0,23.3,29.96,NE,45,6.3,9.8,30,0.00,,,0.02,WUHU216HW,2013-03-20 00:04:00,
2013-03-19 20:05:00,54.0,23.3,29.96,NE,45,6.3,9.8,30,0.00,,,0.02,WUHU216HW,2013-03-20 00:05:00,
2013-03-19 20:07:00,54.0,24.0,29.96,NNE,14,3.3,9.8,31,0.00,,,0.02,WUHU216HW,2013-03-20 00:07:00,
2013-03-19 20:10:00,53.8,23.9,29.96,NNE,23,2.2,9.8,31,0.00,,,0.02,WUHU216HW,2013-03-20 00:10:00,
2013-03-19 20:11:00,53.6,24.4,29.97,North,356,1.0,6.3,32,0.00,,,0.02,WUHU216HW,2013-03-20 00:11:00,
2013-03-19 20:13:00,53.6,24.4,29.97,NNW,338,1.1,6.3,32,0.00,,,0.02,WUHU216HW,2013-03-20 00:13:00,
2013-03-19 20:15:00,53.6,24.4,29.97,North,0,2.9,4.0,32,0.00,,,0.02,WUHU216HW,2013-03-20 00:15:00,
2013-03-19 20:16:00,53.5,24.2,29.97,NNW,328,2.8,4.0,32,0.00,,,0.02,WUHU216HW,2013-03-20 00:16:00,
2013-03-19 20:17:00,53.5,24.2,29.97,NW,305,1.7,2.9,32,0.00,,,0.02,WUHU216HW,2013-03-20 00:17:00,
2013-03-19 20:18:00,53.3,24.8,29.97,NNW,338,0.9,2.9,33,0.00,,,0.02,WUHU216HW,2013-03-20 00:18:00,
2013-03-19 20:20:00,53.1,24.0,29.97,NNW,338,4.7,4.7,32,0.00,,,0.02,WUHU216HW,2013-03-20 00:20:00,
2013-03-19 20:21:00,52.9,22.4,29.97,NNW,348,4.3,4.7,30,0.00,,,0.02,WUHU216HW,2013-03-20 00:21:00,
2013-03-19 20:22:00,52.9,22.4,29.97,NNW,348,4.3,4.7,30,0.00,,,0.02,WUHU216HW,2013-03-20 00:22:00,
2013-03-19 20:23:00,52.9,23.0,29.97,North,0,3.3,4.7,31,0.00,,,0.02,WUHU216HW,2013-03-20 00:23:00,
2013-03-19 20:25:00,52.9,23.0,29.97,NNW,339,3.2,4.7,31,0.00,,,0.02,WUHU216HW,2013-03-20 00:25:00,
2013-03-19 20:27:00,52.9,23.8,29.97,NE,45,4.7,4.7,32,0.00,,,0.02,WUHU216HW,2013-03-20 00:27:00,
2013-03-19 20:29:00,52.9,23.0,29.97,NNW,347,2.6,4.7,31,0.00,,,0.02,WUHU216HW,2013-03-20 00:29:00,
2013-03-19 20:30:00,52.7,23.6,29.97,NNE,13,2.2,4.7,32,0.00,,,0.02,WUHU216HW,2013-03-20 00:30:00,
2013-03-19 20:32:00,52.6,23.4,29.97,North,0,2.0,4.7,32,0.00,,,0.02,WUHU216HW,2013-03-20 00:32:00,
2013-03-19 20:33:00,52.6,22.8,29.97,North,0,1.9,4.7,31,0.00,,,0.02,WUHU216HW,2013-03-20 00:33:00,
2013-03-19 20:34:00,52.6,22.8,29.97,North,351,1.5,4.7,31,0.00,,,0.02,WUHU216HW,2013-03-20 00:34:00,
2013-03-19 20:35:00,52.4,22.6,29.97,NW,315,2.5,4.7,31,0.00,,,0.02,WUHU216HW,2013-03-20 00:35:00,
2013-03-19 20:37:00,52.4,22.6,29.97,NNW,334,2.2,2.9,31,0.00,,,0.02,WUHU216HW,2013-03-20 00:37:00,
2013-03-19 20:39:00,52.2,22.4,29.97,NE,45,2.2,2.5,31,0.00,,,0.02,WUHU216HW,2013-03-20 00:39:00,
2013-03-19 20:41:00,52.2,23.1,29.97,NW,322,1.7,2.5,32,0.00,,,0.02,WUHU216HW,2013-03-20 00:41:00,
2013-03-19 20:43:00,52.0,22.2,29.97,NNW,345,3.6,4.7,31,0.00,,,0.02,WUHU216HW,2013-03-20 00:43:00,
2013-03-19 20:44:00,51.8,22.8,29.97,North,351,2.0,4.7,32,0.00,,,0.02,WUHU216HW,2013-03-20 00:44:00,
2013-03-19 20:45:00,51.8,22.8,29.97,NNW,346,1.3,4.7,32,0.00,,,0.02,WUHU216HW,2013-03-20 00:45:00,
2013-03-19 20:47:00,51.7,22.6,29.97,WNW,293,0.8,4.7,32,0.00,,,0.02,WUHU216HW,2013-03-20 00:47:00,
2013-03-19 20:48:00,51.5,21.8,29.97,North,0,1.8,4.7,31,0.00,,,0.02,WUHU216HW,2013-03-20 00:48:00,
2013-03-19 20:49:00,51.3,22.3,29.97,NW,315,1.8,4.7,32,0.00,,,0.02,WUHU216HW,2013-03-20 00:49:00,
2013-03-19 20:50:00,51.3,21.6,29.97,NW,306,1.5,4.7,31,0.00,,,0.02,WUHU216HW,2013-03-20 00:50:00,
2013-03-19 20:52:00,51.1,21.4,29.97,NNW,338,2.0,2.0,31,0.00,,,0.02,WUHU216HW,2013-03-20 00:52:00,
2013-03-19 20:54:00,51.1,22.1,29.97,NNW,345,1.5,2.0,32,0.00,,,0.02,WUHU216HW,2013-03-20 00:54:00,
2013-03-19 20:55:00,50.9,21.3,29.97,NNW,338,1.3,2.0,31,0.00,,,0.02,WUHU216HW,2013-03-20 00:55:00,
2013-03-19 20:56:00,50.8,21.2,29.97,NNE,23,1.8,2.0,31,0.00,,,0.02,WUHU216HW,2013-03-20 00:56:00,
2013-03-19 20:57:00,50.8,21.2,29.97,NNE,23,2.0,2.0,31,0.00,,,0.02,WUHU216HW,2013-03-20 00:57:00,
2013-03-19 20:59:00,50.8,21.2,29.97,NW,315,2.5,2.5,31,0.00,,,0.02,WUHU216HW,2013-03-20 00:59:00,
2013-03-19 21:00:00,50.8,21.2,29.97,NNW,338,2.5,2.5,31,0.00,,,0.02,WUHU216HW,2013-03-20 01:00:00,
2013-03-19 21:01:00,50.6,20.3,29.97,NNW,338,3.4,3.4,30,0.00,,,0.02,WUHU216HW,2013-03-20 01:01:00,
2013-03-19 21:03:00,50.6,20.3,29.97,NW,315,1.6,3.4,30,0.00,,,0.02,WUHU216HW,2013-03-20 01:03:00,
2013-03-19 21:05:00,50.4,20.8,29.97,NNW,338,1.1,3.4,31,0.00,,,0.02,WUHU216HW,2013-03-20 01:05:00,
2013-03-19 21:06:00,50.4,20.8,29.97,North,0,2.9,3.4,31,0.00,,,0.02,WUHU216HW,2013-03-20 01:06:00,
2013-03-19 21:08:00,50.2,20.6,29.97,North,0,2.3,3.4,31,0.00,,,0.02,WUHU216HW,2013-03-20 01:08:00,
2013-03-19 21:10:00,50.0,20.5,29.97,NNW,338,1.3,3.4,31,0.00,,,0.02,WUHU216HW,2013-03-20 01:10:00,
2013-03-19 21:12:00,50.0,19.8,29.97,NNE,14,1.5,2.9,30,0.00,,,0.02,WUHU216HW,2013-03-20 01:12:00,
2013-03-19 21:14:00,49.9,20.4,29.97,North,0,0.4,2.9,31,0.00,,,0.02,WUHU216HW,2013-03-20 01:14:00,
2013-03-19 21:15:00,49.7,20.9,29.97,North,0,0.3,2.9,32,0.00,,,0.02,WUHU216HW,2013-03-20 01:15:00,
2013-03-19 21:17:00,49.7,20.9,29.97,NNE,23,1.1,1.8,32,0.00,,,0.02,WUHU216HW,2013-03-20 01:17:00,
2013-03-19 21:19:00,49.3,20.6,29.97,NNW,338,0.7,1.8,32,0.00,,,0.02,WUHU216HW,2013-03-20 01:19:00,
2013-03-19 21:20:00,49.3,20.6,29.97,North,354,0.6,1.8,32,0.00,,,0.02,WUHU216HW,2013-03-20 01:20:00,
2013-03-19 21:23:00,49.0,20.3,29.97,NW,315,0.2,1.8,32,0.00,,,0.02,WUHU216HW,2013-03-20 01:23:00,
2013-03-19 21:24:00,49.0,20.3,29.97,NNW,338,0.2,1.8,32,0.00,,,0.02,WUHU216HW,2013-03-20 01:24:00,
2013-03-19 21:26:00,48.8,20.8,29.97,North,0,0.4,1.8,33,0.00,,,0.02,WUHU216HW,2013-03-20 01:26:00,
2013-03-19 21:28:00,48.6,20.7,29.97,NW,315,0.7,0.7,33,0.00,,,0.02,WUHU216HW,2013-03-20 01:28:00,
2013-03-19 21:29:00,48.4,20.5,29.98,NNW,338,0.7,0.7,33,0.00,,,0.02,WUHU216HW,2013-03-20 01:29:00,
2013-03-19 21:31:00,48.2,19.7,29.98,North,0,2.5,4.7,32,0.00,,,0.02,WUHU216HW,2013-03-20 01:31:00,
2013-03-19 21:32:00,48.2,20.3,29.97,NNW,338,0.7,4.7,33,0.00,,,0.02,WUHU216HW,2013-03-20 01:32:00,
2013-03-19 21:33:00,48.2,20.3,29.97,North,0,0.4,4.7,33,0.00,,,0.02,WUHU216HW,2013-03-20 01:33:00,
2013-03-19 21:35:00,48.2,20.3,29.97,NNW,338,0.4,4.7,33,0.00,,,0.02,WUHU216HW,2013-03-20 01:35:00,
2013-03-19 21:36:00,48.2,20.3,29.97,NNW,338,0.3,4.7,33,0.00,,,0.02,WUHU216HW,2013-03-20 01:36:00,
2013-03-19 21:37:00,48.2,20.3,29.98,NW,315,0.2,4.7,33,0.00,,,0.02,WUHU216HW,2013-03-20 01:37:00,
2013-03-19 21:38:00,48.1,20.2,29.97,NW,323,0.6,4.7,33,0.00,,,0.02,WUHU216HW,2013-03-20 01:38:00,
2013-03-19 21:41:00,47.9,20.1,29.98,NNW,347,1.1,1.8,33,0.00,,,0.02,WUHU216HW,2013-03-20 01:41:00,
2013-03-19 21:42:00,47.9,20.1,29.98,NW,315,1.3,1.8,33,0.00,,,0.02,WUHU216HW,2013-03-20 01:42:00,
2013-03-19 21:43:00,47.9,20.7,29.98,NW,306,1.1,1.8,34,0.00,,,0.02,WUHU216HW,2013-03-20 01:43:00,
2013-03-19 21:47:00,47.5,21.7,29.98,NW,308,1.0,1.8,36,0.00,,,0.02,WUHU216HW,2013-03-20 01:47:00,
2013-03-19 21:51:00,47.2,20.1,29.98,NNW,327,1.2,1.3,34,0.00,,,0.02,WUHU216HW,2013-03-20 01:51:00,
2013-03-19 21:52:00,47.2,20.7,29.98,NW,315,1.0,1.3,35,0.00,,,0.02,WUHU216HW,2013-03-20 01:52:00,
2013-03-19 21:53:00,47.2,20.7,29.98,NW,315,1.0,1.3,35,0.00,,,0.02,WUHU216HW,2013-03-20 01:53:00,
2013-03-19 21:57:00,47.2,20.7,29.98,NNW,329,2.2,2.7,35,0.00,,,0.02,WUHU216HW,2013-03-20 01:57:00,
2013-03-19 21:58:00,47.2,20.7,29.98,NNW,333,1.4,2.7,35,0.00,,,0.02,WUHU216HW,2013-03-20 01:58:00,
2013-03-19 21:59:00,47.2,20.7,29.98,North,0,1.6,2.7,35,0.00,,,0.02,WUHU216HW,2013-03-20 01:59:00,
2013-03-19 22:02:00,47.0,19.9,29.98,NNE,23,4.0,4.0,34,0.00,,,0.02,WUHU216HW,2013-03-20 02:02:00,
2013-03-19 22:03:00,47.0,19.9,29.98,NNE,23,4.0,4.0,34,0.00,,,0.02,WUHU216HW,2013-03-20 02:03:00,
2013-03-19 22:04:00,47.0,19.9,29.98,NNE,15,3.1,4.0,34,0.00,,,0.02,WUHU216HW,2013-03-20 02:04:00,
2013-03-19 22:08:00,47.2,21.4,29.98,NNW,331,1.3,4.0,36,0.00,,,0.02,WUHU216HW,2013-03-20 02:08:00,
2013-03-19 22:09:00,47.2,21.4,29.98,NNW,338,1.3,4.0,36,0.00,,,0.02,WUHU216HW,2013-03-20 02:09:00,
2013-03-19 22:10:00,47.0,20.5,29.99,North,0,1.6,4.0,35,0.00,,,0.02,WUHU216HW,2013-03-20 02:10:00,
2013-03-19 22:14:00,46.8,19.1,29.98,NW,315,1.8,2.5,33,0.00,,,0.02,WUHU216HW,2013-03-20 02:14:00,
2013-03-19 22:15:00,46.8,20.4,29.98,NNW,338,1.6,1.8,35,0.00,,,0.02,WUHU216HW,2013-03-20 02:15:00,
2013-03-19 22:19:00,46.8,19.7,29.98,NW,315,1.1,4.5,34,0.00,,,0.02,WUHU216HW,2013-03-20 02:19:00,
2013-03-19 22:20:00,46.8,19.1,29.98,NNE,23,1.8,4.5,33,0.00,,,0.02,WUHU216HW,2013-03-20 02:20:00,
2013-03-19 22:21:00,46.8,19.1,29.98,NNE,14,1.5,4.5,33,0.00,,,0.02,WUHU216HW,2013-03-20 02:21:00,
2013-03-19 22:24:00,47.0,19.3,29.99,NNW,342,3.0,4.5,33,0.00,,,0.02,WUHU216HW,2013-03-20 02:24:00,
2013-03-19 22:25:00,47.0,19.3,29.99,NNW,334,2.2,4.5,33,0.00,,,0.02,WUHU216HW,2013-03-20 02:25:00,
2013-03-19 22:26:00,47.0,19.9,29.99,NW,315,2.7,3.6,34,0.00,,,0.02,WUHU216HW,2013-03-20 02:26:00,
2013-03-19 22:29:00,47.0,19.9,29.99,North,0,2.0,3.6,34,0.00,,,0.02,WUHU216HW,2013-03-20 02:29:00,
2013-03-19 22:30:00,47.0,19.9,29.99,North,0,2.0,3.6,34,0.00,,,0.02,WUHU216HW,2013-03-20 02:30:00,
2013-03-19 22:32:00,47.2,19.4,29.99,North,0,3.6,3.6,33,0.00,,,0.02,WUHU216HW,2013-03-20 02:32:00,
2013-03-19 22:34:00,47.2,19.4,29.99,NNW,348,2.8,3.6,33,0.00,,,0.02,WUHU216HW,2013-03-20 02:34:00,
2013-03-19 22:35:00,47.2,19.4,29.99,NNW,348,2.8,3.6,33,0.00,,,0.02,WUHU216HW,2013-03-20 02:35:00,
2013-03-19 22:37:00,47.2,20.1,29.99,NNE,23,1.8,3.6,34,0.00,,,0.02,WUHU216HW,2013-03-20 02:37:00,
2013-03-19 22:40:00,47.2,19.4,29.99,NNW,347,1.4,3.6,33,0.00,,,0.02,WUHU216HW,2013-03-20 02:40:00,
2013-03-19 22:42:00,47.0,19.9,29.99,North,0,2.5,3.1,34,0.00,,,0.02,WUHU216HW,2013-03-20 02:42:00,
2013-03-19 22:45:00,47.0,19.3,29.99,North,349,0.8,2.5,33,0.00,,,0.02,WUHU216HW,2013-03-20 02:45:00,
2013-03-19 22:46:00,46.8,19.1,29.99,North,0,2.5,2.5,33,0.00,,,0.02,WUHU216HW,2013-03-20 02:46:00,
2013-03-19 22:48:00,46.8,19.1,29.99,NNW,341,3.5,4.0,33,0.00,,,0.02,WUHU216HW,2013-03-20 02:48:00,
2013-03-19 22:50:00,46.8,19.1,29.99,NNW,338,1.8,4.0,33,0.00,,,0.02,WUHU216HW,2013-03-20 02:50:00,
2013-03-19 22:51:00,46.8,19.1,29.99,NNW,338,1.8,4.0,33,0.00,,,0.02,WUHU216HW,2013-03-20 02:51:00,
2013-03-19 22:52:00,46.6,18.9,29.99,NNW,338,2.2,4.0,33,0.00,,,0.02,WUHU216HW,2013-03-20 02:52:00,
2013-03-19 22:53:00,46.6,18.9,29.99,NW,315,4.0,4.0,33,0.00,,,0.02,WUHU216HW,2013-03-20 02:53:00,
2013-03-19 22:56:00,46.4,18.7,29.99,NW,315,2.0,4.0,33,0.00,,,0.02,WUHU216HW,2013-03-20 02:56:00,
2013-03-19 22:58:00,46.4,18.7,29.99,WNW,302,1.1,4.0,33,0.00,,,0.02,WUHU216HW,2013-03-20 02:58:00,
2013-03-19 22:59:00,46.4,19.5,29.99,North,0,0.9,4.0,34,0.00,,,0.02,WUHU216HW,2013-03-20 02:59:00,
2013-03-19 23:01:00,46.4,19.5,29.99,North,0,2.0,4.0,34,0.00,,,0.02,WUHU216HW,2013-03-20 03:01:00,
2013-03-19 23:03:00,46.3,18.5,29.99,North,351,1.6,4.0,33,0.00,,,0.02,WUHU216HW,2013-03-20 03:03:00,
2013-03-19 23:04:00,46.3,18.5,29.99,NNE,23,3.4,3.4,33,0.00,,,0.02,WUHU216HW,2013-03-20 03:04:00,
2013-03-19 23:07:00,46.3,17.9,29.99,NNW,346,0.9,3.4,32,0.00,,,0.02,WUHU216HW,2013-03-20 03:07:00,
2013-03-19 23:08:00,46.3,18.5,29.99,North,0,0.8,3.4,33,0.00,,,0.02,WUHU216HW,2013-03-20 03:08:00,
2013-03-19 23:10:00,46.3,18.5,29.99,North,353,0.3,3.4,33,0.00,,,0.02,WUHU216HW,2013-03-20 03:10:00,
2013-03-19 23:12:00,46.1,19.1,29.99,North,0,1.6,3.4,34,0.00,,,0.02,WUHU216HW,2013-03-20 03:12:00,
2013-03-19 23:13:00,46.1,19.1,29.99,NNE,23,3.4,3.4,34,0.00,,,0.02,WUHU216HW,2013-03-20 03:13:00,
2013-03-19 23:14:00,46.1,19.1,29.99,NNE,23,3.4,3.4,34,0.00,,,0.02,WUHU216HW,2013-03-20 03:14:00,
2013-03-19 23:15:00,46.1,19.1,29.99,North,5,2.3,3.4,34,0.00,,,0.02,WUHU216HW,2013-03-20 03:15:00,
2013-03-19 23:17:00,45.9,18.3,30.00,WNW,293,2.2,3.4,33,0.00,,,0.02,WUHU216HW,2013-03-20 03:17:00,
2013-03-19 23:18:00,45.9,18.3,29.99,NNW,338,2.5,3.4,33,0.00,,,0.02,WUHU216HW,2013-03-20 03:18:00,
2013-03-19 23:19:00,45.9,18.3,29.99,NNW,338,2.5,3.4,33,0.00,,,0.02,WUHU216HW,2013-03-20 03:19:00,
2013-03-19 23:21:00,45.7,18.1,30.00,NW,321,1.9,3.4,33,0.00,,,0.02,WUHU216HW,2013-03-20 03:21:00,
2013-03-19 23:23:00,45.7,18.1,29.99,NW,315,2.0,3.4,33,0.00,,,0.02,WUHU216HW,2013-03-20 03:23:00,
2013-03-19 23:24:00,45.7,18.7,29.99,NW,323,1.5,2.7,34,0.00,,,0.02,WUHU216HW,2013-03-20 03:24:00,
2013-03-19 23:27:00,45.7,18.7,29.99,North,0,1.3,2.7,34,0.00,,,0.02,WUHU216HW,2013-03-20 03:27:00,
2013-03-19 23:28:00,45.5,17.9,29.99,NW,315,1.7,2.9,33,0.00,,,0.02,WUHU216HW,2013-03-20 03:28:00,
2013-03-19 23:29:00,45.5,17.9,29.99,NW,315,1.7,2.9,33,0.00,,,0.02,WUHU216HW,2013-03-20 03:29:00,
2013-03-19 23:32:00,45.5,17.9,29.99,North,349,1.7,2.9,33,0.00,,,0.02,WUHU216HW,2013-03-20 03:32:00,
2013-03-19 23:35:00,45.7,18.1,29.99,North,356,1.0,2.9,33,0.00,,,0.02,WUHU216HW,2013-03-20 03:35:00,
2013-03-19 23:36:00,45.7,18.1,29.99,NW,321,1.3,2.9,33,0.00,,,0.02,WUHU216HW,2013-03-20 03:36:00,
2013-03-19 23:39:00,45.5,17.9,29.99,NNE,23,2.7,2.7,33,0.00,,,0.02,WUHU216HW,2013-03-20 03:39:00,
2013-03-19 23:40:00,45.5,18.6,29.99,North,4,1.9,2.7,34,0.00,,,0.02,WUHU216HW,2013-03-20 03:40:00,
2013-03-19 23:42:00,45.5,18.6,29.99,NNW,338,1.6,2.7,34,0.00,,,0.02,WUHU216HW,2013-03-20 03:42:00,
2013-03-19 23:44:00,45.4,19.1,29.99,NNW,338,2.0,2.7,35,0.00,,,0.02,WUHU216HW,2013-03-20 03:44:00,
2013-03-19 23:45:00,45.4,19.1,29.99,NNW,346,1.6,2.7,35,0.00,,,0.02,WUHU216HW,2013-03-20 03:45:00,
2013-03-19 23:46:00,45.4,19.1,29.99,NNW,338,2.0,2.7,35,0.00,,,0.02,WUHU216HW,2013-03-20 03:46:00,
2013-03-19 23:47:00,45.4,19.1,29.99,NNW,338,1.6,2.7,35,0.00,,,0.02,WUHU216HW,2013-03-20 03:47:00,
2013-03-19 23:50:00,45.2,18.3,29.99,NNW,343,2.2,2.9,34,0.00,,,0.02,WUHU216HW,2013-03-20 03:50:00,
2013-03-19 23:51:00,45.2,17.7,29.99,North,0,2.9,2.9,33,0.00,,,0.02,WUHU216HW,2013-03-20 03:51:00,
2013-03-19 23:52:00,45.2,17.7,29.99,North,0,2.9,2.9,33,0.00,,,0.02,WUHU216HW,2013-03-20 03:52:00,
2013-03-19 23:53:00,45.2,18.9,29.99,NNE,18,2.2,3.4,35,0.00,,,0.02,WUHU216HW,2013-03-20 03:53:00,
2013-03-19 23:55:00,45.2,18.3,29.99,NNE,23,1.8,3.4,34,0.00,,,0.02,WUHU216HW,2013-03-20 03:55:00,
2013-03-19 23:57:00,45.4,17.7,29.99,North,0,3.6,3.6,33,0.00,,,0.02,WUHU216HW,2013-03-20 03:57:00,
2013-03-19 23:58:00,45.4,17.7,29.99,North,0,3.6,3.6,33,0.00,,,0.02,WUHU216HW,2013-03-20 03:58:00,
2013-03-19 23:59:00,45.4,19.1,29.99,North,353,0.3,3.6,35,0.00,,,0.02,WUHU216HW,2013-03-20 03:59:00,